Time,TemperatureF,DewpointF,PressureIn,WindDirection,WindDirectionDegrees,WindSpeedMPH,WindSpeedGustMPH,Humidity,HourlyPrecipIn,Conditions,Clouds,dailyrainin,SolarRadiationWatts/m^2,SoftwareType,DateUTC
2013-09-23 00:00:00,46.7,39.9,28.06,WNW,285,0.0,4.0,77,0.00,,,0.00,0,Wunderground v.1.15,2013-09-23 04:00:00,
2013-09-23 00:01:00,46.7,39.5,28.06,WNW,285,5.0,5.0,76,0.00,,,0.00,0,Wunderground v.1.15,2013-09-23 04:01:00,
2013-09-23 00:04:00,46.7,39.9,28.06,WNW,285,0.0,5.0,77,0.00,,,0.00,0,Wunderground v.1.15,2013-09-23 04:04:00,
2013-09-23 00:05:00,46.7,39.9,28.06,WNW,285,0.0,5.0,77,0.00,,,0.00,0,Wunderground v.1.15,2013-09-23 04:05:00,
2013-09-23 00:06:00,46.7,39.9,28.06,WNW,285,3.0,5.0,77,0.00,,,0.00,0,Wunderground v.1.15,2013-09-23 04:06:00,
2013-09-23 00:09:00,46.7,39.5,28.06,WNW,297,4.0,4.0,76,0.00,,,0.00,0,Wunderground v.1.15,2013-09-23 04:09:00,
2013-09-23 00:11:00,46.7,39.5,28.06,WNW,291,3.0,4.0,76,0.00,,,0.00,0,Wunderground v.1.15,2013-09-23 04:11:00,
2013-09-23 00:14:00,46.7,39.5,28.06,West,276,3.0,9.0,76,0.00,,,0.00,0,Wunderground v.1.15,2013-09-23 04:14:00,
2013-09-23 00:17:00,46.7,39.5,28.06,West,281,1.0,9.0,76,0.00,,,0.00,0,Wunderground v.1.15,2013-09-23 04:17:00,
2013-09-23 00:19:00,46.7,39.9,28.06,West,269,7.0,9.0,77,0.00,,,0.00,0,Wunderground v.1.15,2013-09-23 04:19:00,
2013-09-23 00:20:00,46.7,39.9,28.06,NW,307,2.0,3.0,77,0.00,,,0.00,0,Wunderground v.1.15,2013-09-23 04:20:00,
2013-09-23 00:21:00,46.7,39.9,28.06,NW,306,1.0,3.0,77,0.00,,,0.00,0,Wunderground v.1.15,2013-09-23 04:21:00,
2013-09-23 00:22:00,46.7,39.9,28.06,WNW,290,2.0,3.0,77,0.00,,,0.00,0,Wunderground v.1.15,2013-09-23 04:22:00,
2013-09-23 00:25:00,46.7,39.9,28.06,NW,314,0.0,5.0,77,0.00,,,0.00,0,Wunderground v.1.15,2013-09-23 04:25:00,
2013-09-23 00:26:00,46.7,40.2,28.06,NW,314,0.0,5.0,78,0.00,,,0.00,0,Wunderground v.1.15,2013-09-23 04:26:00,
2013-09-23 00:27:00,46.7,40.2,28.06,WNW,297,3.0,5.0,78,0.00,,,0.00,0,Wunderground v.1.15,2013-09-23 04:27:00,
2013-09-23 00:31:00,46.7,39.9,28.06,West,277,4.0,5.0,77,0.00,,,0.00,0,Wunderground v.1.15,2013-09-23 04:31:00,
2013-09-23 00:32:00,46.7,39.5,28.06,WNW,283,2.0,5.0,76,0.00,,,0.00,0,Wunderground v.1.15,2013-09-23 04:32:00,
2013-09-23 00:37:00,46.8,40.0,28.06,WNW,295,2.0,5.0,77,0.00,,,0.00,0,Wunderground v.1.15,2013-09-23 04:37:00,
2013-09-23 00:38:00,46.8,40.3,28.06,WNW,303,6.0,6.0,78,0.00,,,0.00,0,Wunderground v.1.15,2013-09-23 04:38:00,
2013-09-23 00:40:00,46.8,40.0,28.06,WNW,299,2.0,4.0,77,0.00,,,0.00,0,Wunderground v.1.15,2013-09-23 04:40:00,
2013-09-23 00:41:00,46.8,40.0,28.06,WNW,297,3.0,5.0,77,0.00,,,0.00,0,Wunderground v.1.15,2013-09-23 04:41:00,
2013-09-23 00:43:00,46.7,39.9,28.05,NW,319,2.0,5.0,77,0.00,,,0.00,0,Wunderground v.1.15,2013-09-23 04:43:00,
2013-09-23 00:45:00,46.7,39.9,28.05,WNW,297,0.0,5.0,77,0.00,,,0.00,0,Wunderground v.1.15,2013-09-23 04:45:00,
2013-09-23 00:47:00,46.7,39.9,28.05,NNW,344,2.0,5.0,77,0.00,,,0.00,0,Wunderground v.1.15,2013-09-23 04:47:00,
2013-09-23 00:48:00,46.7,39.9,28.05,West,276,4.0,5.0,77,0.00,,,0.00,0,Wunderground v.1.15,2013-09-23 04:48:00,
2013-09-23 00:49:00,46.7,39.9,28.05,NW,310,1.0,5.0,77,0.00,,,0.00,0,Wunderground v.1.15,2013-09-23 04:49:00,
2013-09-23 00:50:00,46.7,40.2,28.05,NW,306,4.0,4.0,78,0.00,,,0.00,0,Wunderground v.1.15,2013-09-23 04:50:00,
2013-09-23 00:51:00,46.7,40.2,28.05,WNW,288,6.0,6.0,78,0.00,,,0.00,0,Wunderground v.1.15,2013-09-23 04:51:00,
2013-09-23 00:53:00,46.7,40.2,28.05,WNW,293,3.0,6.0,78,0.00,,,0.00,0,Wunderground v.1.15,2013-09-23 04:53:00,
2013-09-23 00:56:00,46.7,40.2,28.05,WNW,299,2.0,6.0,78,0.00,,,0.00,0,Wunderground v.1.15,2013-09-23 04:56:00,
2013-09-23 00:57:00,46.7,39.9,28.06,WNW,297,2.0,6.0,77,0.00,,,0.00,0,Wunderground v.1.15,2013-09-23 04:57:00,
2013-09-23 00:58:00,46.7,40.2,28.06,WNW,297,0.0,6.0,78,0.00,,,0.00,0,Wunderground v.1.15,2013-09-23 04:58:00,
2013-09-23 00:59:00,46.7,40.2,28.06,WNW,298,0.0,6.0,78,0.00,,,0.00,0,Wunderground v.1.15,2013-09-23 04:59:00,
2013-09-23 01:00:00,46.7,40.2,28.06,WNW,298,1.0,2.0,78,0.00,,,0.00,0,Wunderground v.1.15,2013-09-23 05:00:00,
2013-09-23 01:04:00,46.7,39.9,28.06,NNW,332,0.0,4.0,77,0.00,,,0.00,0,Wunderground v.1.15,2013-09-23 05:04:00,
2013-09-23 01:05:00,46.7,39.9,28.06,NNW,332,0.0,4.0,77,0.00,,,0.00,0,Wunderground v.1.15,2013-09-23 05:05:00,
2013-09-23 01:06:00,46.7,39.9,28.06,NNW,332,0.0,4.0,77,0.00,,,0.00,0,Wunderground v.1.15,2013-09-23 05:06:00,
2013-09-23 01:10:00,46.7,40.2,28.06,WNW,295,1.0,1.0,78,0.00,,,0.00,0,Wunderground v.1.15,2013-09-23 05:10:00,
2013-09-23 01:11:00,46.7,39.9,28.06,WNW,296,3.0,3.0,77,0.00,,,0.00,0,Wunderground v.1.15,2013-09-23 05:11:00,
2013-09-23 01:13:00,46.7,40.2,28.06,WNW,298,3.0,3.0,78,0.00,,,0.00,0,Wunderground v.1.15,2013-09-23 05:13:00,
2013-09-23 01:16:00,46.7,39.9,28.06,NNW,339,2.0,5.0,77,0.00,,,0.00,0,Wunderground v.1.15,2013-09-23 05:16:00,
2013-09-23 01:18:00,46.7,39.5,28.06,NNW,328,2.0,5.0,76,0.00,,,0.00,0,Wunderground v.1.15,2013-09-23 05:18:00,
2013-09-23 01:21:00,46.7,39.9,28.06,NNW,340,1.0,2.0,77,0.00,,,0.00,0,Wunderground v.1.15,2013-09-23 05:21:00,
2013-09-23 01:22:00,46.7,39.9,28.06,NNW,340,0.0,2.0,77,0.00,,,0.00,0,Wunderground v.1.15,2013-09-23 05:22:00,
2013-09-23 01:23:00,46.7,40.2,28.06,WNW,301,2.0,2.0,78,0.00,,,0.00,0,Wunderground v.1.15,2013-09-23 05:23:00,
2013-09-23 01:26:00,46.7,40.2,28.06,NNW,342,1.0,3.0,78,0.00,,,0.00,0,Wunderground v.1.15,2013-09-23 05:26:00,
2013-09-23 01:29:00,46.7,40.2,28.06,NW,304,4.0,4.0,78,0.00,,,0.00,0,Wunderground v.1.15,2013-09-23 05:29:00,
2013-09-23 01:32:00,46.7,40.2,28.06,NW,304,2.0,4.0,78,0.00,,,0.00,0,Wunderground v.1.15,2013-09-23 05:32:00,
2013-09-23 01:34:00,46.7,40.2,28.06,NW,312,5.0,5.0,78,0.00,,,0.00,0,Wunderground v.1.15,2013-09-23 05:34:00,
2013-09-23 01:35:00,46.7,40.2,28.06,West,261,1.0,5.0,78,0.00,,,0.00,0,Wunderground v.1.15,2013-09-23 05:35:00,
2013-09-23 01:38:00,46.7,39.9,28.06,NW,314,4.0,5.0,77,0.00,,,0.00,0,Wunderground v.1.15,2013-09-23 05:38:00,
2013-09-23 01:43:00,46.7,40.2,28.06,West,281,7.0,7.0,78,0.00,,,0.00,0,Wunderground v.1.15,2013-09-23 05:43:00,
2013-09-23 01:45:00,46.8,40.0,28.06,NW,311,5.0,7.0,77,0.00,,,0.00,0,Wunderground v.1.15,2013-09-23 05:45:00,
2013-09-23 01:46:00,46.8,40.0,28.06,WNW,297,3.0,7.0,77,0.00,,,0.00,0,Wunderground v.1.15,2013-09-23 05:46:00,
2013-09-23 01:50:00,46.8,40.0,28.06,WNW,284,0.0,4.0,77,0.00,,,0.00,0,Wunderground v.1.15,2013-09-23 05:50:00,
2013-09-23 01:52:00,46.8,40.3,28.06,WNW,285,3.0,4.0,78,0.00,,,0.00,0,Wunderground v.1.15,2013-09-23 05:52:00,
2013-09-23 01:53:00,46.8,40.3,28.06,WNW,298,4.0,4.0,78,0.00,,,0.00,0,Wunderground v.1.15,2013-09-23 05:53:00,
2013-09-23 01:57:00,46.8,40.3,28.06,WNW,289,3.0,4.0,78,0.00,,,0.00,0,Wunderground v.1.15,2013-09-23 05:57:00,
2013-09-23 01:58:00,46.8,40.3,28.06,NNW,330,4.0,4.0,78,0.00,,,0.00,0,Wunderground v.1.15,2013-09-23 05:58:00,
2013-09-23 01:59:00,46.8,40.3,28.06,North,351,0.0,4.0,78,0.00,,,0.00,0,Wunderground v.1.15,2013-09-23 05:59:00,
2013-09-23 02:01:00,46.8,40.6,28.06,WNW,283,2.0,4.0,79,0.00,,,0.00,0,Wunderground v.1.15,2013-09-23 06:01:00,
2013-09-23 02:02:00,46.8,40.6,28.06,WNW,283,4.0,5.0,79,0.00,,,0.00,0,Wunderground v.1.15,2013-09-23 06:02:00,
2013-09-23 02:03:00,46.8,40.6,28.06,WNW,283,2.0,5.0,79,0.00,,,0.00,0,Wunderground v.1.15,2013-09-23 06:03:00,
2013-09-23 02:04:00,46.8,40.6,28.06,WNW,283,3.0,5.0,79,0.00,,,0.00,0,Wunderground v.1.15,2013-09-23 06:04:00,
2013-09-23 02:06:00,46.8,40.6,28.06,NW,311,4.0,5.0,79,0.00,,,0.00,0,Wunderground v.1.15,2013-09-23 06:06:00,
2013-09-23 02:07:00,46.7,40.5,28.06,WNW,293,6.0,6.0,79,0.00,,,0.00,0,Wunderground v.1.15,2013-09-23 06:07:00,
2013-09-23 02:08:00,46.7,40.9,28.06,WNW,289,1.0,7.0,80,0.00,,,0.00,0,Wunderground v.1.15,2013-09-23 06:08:00,
2013-09-23 02:09:00,46.7,40.9,28.06,WNW,285,6.0,10.0,80,0.00,,,0.00,0,Wunderground v.1.15,2013-09-23 06:09:00,
2013-09-23 02:11:00,46.7,40.9,28.06,NW,312,3.0,7.0,80,0.00,,,0.00,0,Wunderground v.1.15,2013-09-23 06:11:00,
2013-09-23 02:12:00,46.7,40.9,28.06,WNW,297,2.0,7.0,80,0.00,,,0.00,0,Wunderground v.1.15,2013-09-23 06:12:00,
2013-09-23 02:13:00,46.7,40.9,28.06,WNW,284,7.0,7.0,80,0.00,,,0.00,0,Wunderground v.1.15,2013-09-23 06:13:00,
2013-09-23 02:14:00,46.7,40.9,28.06,WNW,284,7.0,10.0,80,0.00,,,0.00,0,Wunderground v.1.15,2013-09-23 06:14:00,
2013-09-23 02:16:00,46.7,40.9,28.06,NW,311,1.0,11.0,80,0.00,,,0.00,0,Wunderground v.1.15,2013-09-23 06:16:00,
2013-09-23 02:18:00,46.7,40.9,28.06,WNW,300,4.0,11.0,80,0.00,,,0.00,0,Wunderground v.1.15,2013-09-23 06:18:00,
2013-09-23 02:20:00,46.7,40.5,28.06,NW,308,4.0,4.0,79,0.00,,,0.00,0,Wunderground v.1.15,2013-09-23 06:20:00,
2013-09-23 02:21:00,46.7,40.5,28.06,NNW,328,5.0,7.0,79,0.00,,,0.00,0,Wunderground v.1.15,2013-09-23 06:21:00,
2013-09-23 02:22:00,46.7,40.5,28.06,NNW,327,4.0,7.0,79,0.00,,,0.00,0,Wunderground v.1.15,2013-09-23 06:22:00,
2013-09-23 02:23:00,46.7,40.5,28.06,WNW,296,4.0,7.0,79,0.00,,,0.00,0,Wunderground v.1.15,2013-09-23 06:23:00,
2013-09-23 02:24:00,46.7,40.9,28.06,WNW,296,5.0,7.0,80,0.00,,,0.00,0,Wunderground v.1.15,2013-09-23 06:24:00,
2013-09-23 02:25:00,46.7,40.5,28.06,WNW,296,1.0,7.0,79,0.00,,,0.00,0,Wunderground v.1.15,2013-09-23 06:25:00,
2013-09-23 02:27:00,46.7,40.5,28.06,WNW,289,2.0,7.0,79,0.00,,,0.00,0,Wunderground v.1.15,2013-09-23 06:27:00,
2013-09-23 02:29:00,46.7,40.5,28.06,WNW,289,5.0,7.0,79,0.00,,,0.00,0,Wunderground v.1.15,2013-09-23 06:29:00,
2013-09-23 02:30:00,46.7,40.9,28.06,WNW,288,1.0,4.0,80,0.00,,,0.00,0,Wunderground v.1.15,2013-09-23 06:30:00,
2013-09-23 02:33:00,46.7,40.9,28.06,WNW,285,4.0,10.0,80,0.00,,,0.00,0,Wunderground v.1.15,2013-09-23 06:33:00,
2013-09-23 02:34:00,46.7,40.9,28.06,WNW,288,7.0,10.0,80,0.00,,,0.00,0,Wunderground v.1.15,2013-09-23 06:34:00,
2013-09-23 02:35:00,46.7,40.5,28.06,NW,314,0.0,10.0,79,0.00,,,0.00,0,Wunderground v.1.15,2013-09-23 06:35:00,
2013-09-23 02:36:00,46.8,40.6,28.06,NNW,334,6.0,10.0,79,0.00,,,0.00,0,Wunderground v.1.15,2013-09-23 06:36:00,
2013-09-23 02:38:00,46.8,41.0,28.06,WNW,286,7.0,10.0,80,0.00,,,0.00,0,Wunderground v.1.15,2013-09-23 06:38:00,
2013-09-23 02:39:00,46.8,41.0,28.06,WNW,285,1.0,10.0,80,0.00,,,0.00,0,Wunderground v.1.15,2013-09-23 06:39:00,
2013-09-23 02:40:00,46.8,41.0,28.06,WNW,292,4.0,6.0,80,0.00,,,0.00,0,Wunderground v.1.15,2013-09-23 06:40:00,
2013-09-23 02:41:00,46.8,41.0,28.06,WNW,292,3.0,6.0,80,0.00,,,0.00,0,Wunderground v.1.15,2013-09-23 06:41:00,
2013-09-23 02:43:00,46.8,41.0,28.06,WNW,283,4.0,6.0,80,0.00,,,0.00,0,Wunderground v.1.15,2013-09-23 06:43:00,
2013-09-23 02:44:00,46.8,41.0,28.06,WNW,293,2.0,6.0,80,0.00,,,0.00,0,Wunderground v.1.15,2013-09-23 06:44:00,
2013-09-23 02:45:00,46.8,41.0,28.06,West,274,10.0,10.0,80,0.00,,,0.00,0,Wunderground v.1.15,2013-09-23 06:45:00,
2013-09-23 02:46:00,46.8,41.0,28.06,NW,314,4.0,13.0,80,0.00,,,0.00,0,Wunderground v.1.15,2013-09-23 06:46:00,
2013-09-23 02:49:00,46.8,41.0,28.06,WNW,283,1.0,13.0,80,0.00,,,0.00,0,Wunderground v.1.15,2013-09-23 06:49:00,
2013-09-23 02:50:00,46.8,41.0,28.06,WNW,292,6.0,10.0,80,0.00,,,0.00,0,Wunderground v.1.15,2013-09-23 06:50:00,
2013-09-23 02:51:00,46.8,41.0,28.06,WNW,302,5.0,10.0,80,0.00,,,0.00,0,Wunderground v.1.15,2013-09-23 06:51:00,
2013-09-23 02:54:00,46.8,41.0,28.06,NW,308,4.0,10.0,80,0.00,,,0.00,0,Wunderground v.1.15,2013-09-23 06:54:00,
2013-09-23 02:55:00,46.8,41.0,28.06,WNW,294,2.0,10.0,80,0.00,,,0.00,0,Wunderground v.1.15,2013-09-23 06:55:00,
2013-09-23 02:56:00,46.7,40.9,28.06,WNW,289,3.0,10.0,80,0.00,,,0.00,0,Wunderground v.1.15,2013-09-23 06:56:00,
2013-09-23 02:57:00,46.7,41.2,28.06,WNW,289,2.0,10.0,81,0.00,,,0.00,0,Wunderground v.1.15,2013-09-23 06:57:00,
2013-09-23 02:59:00,46.7,41.2,28.06,NW,305,6.0,10.0,81,0.00,,,0.00,0,Wunderground v.1.15,2013-09-23 06:59:00,
2013-09-23 03:01:00,46.7,41.2,28.06,WNW,288,2.0,5.0,81,0.00,,,0.00,0,Wunderground v.1.15,2013-09-23 07:01:00,
2013-09-23 03:02:00,46.7,41.2,28.06,WNW,288,2.0,5.0,81,0.00,,,0.00,0,Wunderground v.1.15,2013-09-23 07:02:00,
2013-09-23 03:05:00,46.7,41.2,28.06,WNW,300,3.0,9.0,81,0.00,,,0.00,0,Wunderground v.1.15,2013-09-23 07:05:00,
2013-09-23 03:06:00,46.7,41.5,28.06,WNW,295,4.0,9.0,82,0.00,,,0.00,0,Wunderground v.1.15,2013-09-23 07:06:00,
2013-09-23 03:08:00,46.7,41.5,28.06,NW,319,2.0,10.0,82,0.00,,,0.00,0,Wunderground v.1.15,2013-09-23 07:08:00,
2013-09-23 03:10:00,46.5,41.3,28.06,NNW,336,1.0,3.0,82,0.00,,,0.00,0,Wunderground v.1.15,2013-09-23 07:10:00,
2013-09-23 03:11:00,46.5,41.3,28.07,NW,305,5.0,9.0,82,0.00,,,0.00,0,Wunderground v.1.15,2013-09-23 07:11:00,
2013-09-23 03:13:00,46.5,41.6,28.07,NW,309,2.0,9.0,83,0.00,,,0.00,0,Wunderground v.1.15,2013-09-23 07:13:00,
2013-09-23 03:14:00,46.5,41.6,28.07,NW,309,0.0,9.0,83,0.00,,,0.00,0,Wunderground v.1.15,2013-09-23 07:14:00,
2013-09-23 03:15:00,46.5,41.9,28.07,NW,307,3.0,9.0,84,0.00,,,0.00,0,Wunderground v.1.15,2013-09-23 07:15:00,
2013-09-23 03:16:00,46.5,41.9,28.07,NW,317,4.0,9.0,84,0.00,,,0.00,0,Wunderground v.1.15,2013-09-23 07:16:00,
2013-09-23 03:18:00,46.4,41.8,28.07,NW,316,3.0,9.0,84,0.00,,,0.00,0,Wunderground v.1.15,2013-09-23 07:18:00,
2013-09-23 03:19:00,46.4,42.1,28.07,NW,318,0.0,2.0,85,0.00,,,0.00,0,Wunderground v.1.15,2013-09-23 07:19:00,
2013-09-23 03:20:00,46.4,42.1,28.07,NW,316,3.0,6.0,85,0.00,,,0.00,0,Wunderground v.1.15,2013-09-23 07:20:00,
2013-09-23 03:21:00,46.4,42.1,28.07,NW,316,1.0,6.0,85,0.00,,,0.00,0,Wunderground v.1.15,2013-09-23 07:21:00,
2013-09-23 03:22:00,46.4,42.1,28.07,West,281,1.0,6.0,85,0.00,,,0.00,0,Wunderground v.1.15,2013-09-23 07:22:00,
2013-09-23 03:24:00,46.2,41.9,28.07,NW,316,1.0,6.0,85,0.00,,,0.00,0,Wunderground v.1.15,2013-09-23 07:24:00,
2013-09-23 03:25:00,46.2,41.9,28.07,NW,304,4.0,8.0,85,0.00,,,0.00,0,Wunderground v.1.15,2013-09-23 07:25:00,
2013-09-23 03:26:00,46.2,42.2,28.07,NW,326,5.0,8.0,86,0.00,,,0.00,0,Wunderground v.1.15,2013-09-23 07:26:00,
2013-09-23 03:27:00,46.2,42.2,28.07,NNW,338,2.0,8.0,86,0.00,,,0.00,0,Wunderground v.1.15,2013-09-23 07:27:00,
2013-09-23 03:29:00,46.1,42.1,28.07,NW,321,3.0,9.0,86,0.00,,,0.00,0,Wunderground v.1.15,2013-09-23 07:29:00,
2013-09-23 03:30:00,46.1,42.1,28.07,WNW,287,4.0,4.0,86,0.00,,,0.00,0,Wunderground v.1.15,2013-09-23 07:30:00,
2013-09-23 03:31:00,46.1,42.1,28.07,WNW,291,5.0,6.0,86,0.00,,,0.00,0,Wunderground v.1.15,2013-09-23 07:31:00,
2013-09-23 03:32:00,46.1,42.1,28.07,NW,312,4.0,9.0,86,0.00,,,0.00,0,Wunderground v.1.15,2013-09-23 07:32:00,
2013-09-23 03:34:00,46.0,42.3,28.07,WNW,283,3.0,9.0,87,0.00,,,0.00,0,Wunderground v.1.15,2013-09-23 07:34:00,
2013-09-23 03:35:00,46.0,42.3,28.07,WNW,284,1.0,9.0,87,0.00,,,0.00,0,Wunderground v.1.15,2013-09-23 07:35:00,
2013-09-23 03:36:00,46.0,42.3,28.07,WNW,290,4.0,9.0,87,0.00,,,0.00,0,Wunderground v.1.15,2013-09-23 07:36:00,
2013-09-23 03:37:00,46.0,42.3,28.07,WNW,290,0.0,9.0,87,0.00,,,0.00,0,Wunderground v.1.15,2013-09-23 07:37:00,
2013-09-23 03:39:00,46.0,42.3,28.07,WNW,288,2.0,3.0,87,0.00,,,0.00,0,Wunderground v.1.15,2013-09-23 07:39:00,
2013-09-23 03:40:00,46.0,42.3,28.07,WNW,283,3.0,3.0,87,0.00,,,0.00,0,Wunderground v.1.15,2013-09-23 07:40:00,
2013-09-23 03:41:00,46.0,42.3,28.08,WNW,287,0.0,5.0,87,0.00,,,0.00,0,Wunderground v.1.15,2013-09-23 07:41:00,
2013-09-23 03:42:00,46.0,42.3,28.08,NNW,332,2.0,5.0,87,0.00,,,0.00,0,Wunderground v.1.15,2013-09-23 07:42:00,
2013-09-23 03:44:00,45.8,42.2,28.08,NW,326,0.0,5.0,87,0.00,,,0.00,0,Wunderground v.1.15,2013-09-23 07:44:00,
2013-09-23 03:45:00,45.8,42.2,28.08,NW,326,1.0,5.0,87,0.00,,,0.00,0,Wunderground v.1.15,2013-09-23 07:45:00,
2013-09-23 03:47:00,45.8,42.2,28.08,NW,323,3.0,5.0,87,0.00,,,0.00,0,Wunderground v.1.15,2013-09-23 07:47:00,
2013-09-23 03:48:00,45.8,42.2,28.08,WNW,283,4.0,5.0,87,0.00,,,0.00,0,Wunderground v.1.15,2013-09-23 07:48:00,
2013-09-23 03:50:00,45.8,42.2,28.08,WNW,283,4.0,4.0,87,0.00,,,0.00,0,Wunderground v.1.15,2013-09-23 07:50:00,
2013-09-23 03:51:00,45.8,42.2,28.08,NW,309,2.0,4.0,87,0.00,,,0.00,0,Wunderground v.1.15,2013-09-23 07:51:00,
2013-09-23 03:52:00,45.8,42.2,28.08,NW,309,3.0,4.0,87,0.00,,,0.00,0,Wunderground v.1.15,2013-09-23 07:52:00,
2013-09-23 03:53:00,45.8,42.2,28.08,NW,309,0.0,4.0,87,0.00,,,0.00,0,Wunderground v.1.15,2013-09-23 07:53:00,
2013-09-23 03:55:00,45.8,42.4,28.08,NW,304,0.0,4.0,88,0.00,,,0.00,0,Wunderground v.1.15,2013-09-23 07:55:00,
2013-09-23 03:56:00,45.8,42.4,28.08,NW,306,4.0,5.0,88,0.00,,,0.00,0,Wunderground v.1.15,2013-09-23 07:56:00,
2013-09-23 03:57:00,45.8,42.4,28.08,NW,306,1.0,5.0,88,0.00,,,0.00,0,Wunderground v.1.15,2013-09-23 07:57:00,
2013-09-23 03:59:00,45.8,42.4,28.08,NW,306,1.0,5.0,88,0.00,,,0.00,0,Wunderground v.1.15,2013-09-23 07:59:00,
2013-09-23 04:00:00,45.8,42.4,28.08,NW,306,0.0,2.0,88,0.00,,,0.00,0,Wunderground v.1.15,2013-09-23 08:00:00,
2013-09-23 04:01:00,45.8,42.4,28.08,NNW,338,2.0,6.0,88,0.00,,,0.00,0,Wunderground v.1.15,2013-09-23 08:01:00,
2013-09-23 04:02:00,45.8,42.4,28.08,NNW,338,0.0,6.0,88,0.00,,,0.00,0,Wunderground v.1.15,2013-09-23 08:02:00,
2013-09-23 04:04:00,45.8,42.4,28.08,WNW,300,4.0,7.0,88,0.00,,,0.00,0,Wunderground v.1.15,2013-09-23 08:04:00,
2013-09-23 04:05:00,45.8,42.4,28.08,WNW,302,0.0,7.0,88,0.00,,,0.00,0,Wunderground v.1.15,2013-09-23 08:05:00,
2013-09-23 04:07:00,45.8,42.4,28.08,WNW,302,0.0,7.0,88,0.00,,,0.00,0,Wunderground v.1.15,2013-09-23 08:07:00,
2013-09-23 04:09:00,45.8,42.4,28.08,NW,309,2.0,7.0,88,0.00,,,0.00,0,Wunderground v.1.15,2013-09-23 08:09:00,
2013-09-23 04:10:00,45.8,42.7,28.08,NW,309,0.0,2.0,89,0.00,,,0.01,0,Wunderground v.1.15,2013-09-23 08:10:00,
2013-09-23 04:12:00,45.8,42.7,28.08,WNW,295,3.0,3.0,89,0.00,,,0.01,0,Wunderground v.1.15,2013-09-23 08:12:00,
2013-09-23 04:15:00,45.8,43.0,28.08,NW,322,2.0,6.0,90,0.00,,,0.01,0,Wunderground v.1.15,2013-09-23 08:15:00,
2013-09-23 04:16:00,45.7,42.9,28.08,NW,323,1.0,6.0,90,0.00,,,0.01,0,Wunderground v.1.15,2013-09-23 08:16:00,
2013-09-23 04:18:00,45.7,42.9,28.08,NW,323,0.0,6.0,90,0.00,,,0.01,0,Wunderground v.1.15,2013-09-23 08:18:00,
2013-09-23 04:20:00,45.7,43.2,28.08,NW,323,0.0,2.0,91,0.00,,,0.01,0,Wunderground v.1.15,2013-09-23 08:20:00,
2013-09-23 04:21:00,45.7,43.2,28.08,NW,323,2.0,2.0,91,0.00,,,0.01,0,Wunderground v.1.15,2013-09-23 08:21:00,
2013-09-23 04:23:00,45.7,43.2,28.08,NW,323,2.0,3.0,91,0.00,,,0.01,0,Wunderground v.1.15,2013-09-23 08:23:00,
2013-09-23 04:25:00,45.5,43.0,28.08,NNW,336,4.0,5.0,91,0.00,,,0.01,0,Wunderground v.1.15,2013-09-23 08:25:00,
2013-09-23 04:26:00,45.5,43.0,28.08,NNW,336,3.0,5.0,91,0.00,,,0.01,0,Wunderground v.1.15,2013-09-23 08:26:00,
2013-09-23 04:28:00,45.5,43.3,28.08,NW,317,4.0,5.0,92,0.00,,,0.01,0,Wunderground v.1.15,2013-09-23 08:28:00,
2013-09-23 04:30:00,45.5,43.3,28.08,NW,317,0.0,2.0,92,0.00,,,0.01,0,Wunderground v.1.15,2013-09-23 08:30:00,
2013-09-23 04:31:00,45.5,43.3,28.08,NNW,345,4.0,5.0,92,0.00,,,0.01,0,Wunderground v.1.15,2013-09-23 08:31:00,
2013-09-23 04:33:00,45.4,43.5,28.08,NNW,345,3.0,5.0,93,0.00,,,0.02,0,Wunderground v.1.15,2013-09-23 08:33:00,
2013-09-23 04:34:00,45.4,43.5,28.08,NNW,345,5.0,5.0,93,0.00,,,0.02,0,Wunderground v.1.15,2013-09-23 08:34:00,
2013-09-23 04:35:00,45.4,43.5,28.08,NW,317,0.0,5.0,93,0.00,,,0.02,0,Wunderground v.1.15,2013-09-23 08:35:00,
2013-09-23 04:36:00,45.4,43.5,28.08,NW,318,0.0,5.0,93,0.00,,,0.02,0,Wunderground v.1.15,2013-09-23 08:36:00,
2013-09-23 04:38:00,45.4,43.5,28.08,NW,323,2.0,5.0,93,0.00,,,0.02,0,Wunderground v.1.15,2013-09-23 08:38:00,
2013-09-23 04:39:00,45.4,43.5,28.08,NW,323,0.0,5.0,93,0.00,,,0.02,0,Wunderground v.1.15,2013-09-23 08:39:00,
2013-09-23 04:40:00,45.4,43.5,28.08,NW,323,0.0,3.0,93,0.00,,,0.02,0,Wunderground v.1.15,2013-09-23 08:40:00,
2013-09-23 04:41:00,45.4,43.5,28.09,NW,323,0.0,3.0,93,0.00,,,0.02,0,Wunderground v.1.15,2013-09-23 08:41:00,
2013-09-23 04:42:00,45.4,43.5,28.09,NW,323,0.0,3.0,93,0.00,,,0.02,0,Wunderground v.1.15,2013-09-23 08:42:00,
2013-09-23 04:43:00,45.2,43.6,28.09,NW,323,0.0,3.0,94,0.00,,,0.02,0,Wunderground v.1.15,2013-09-23 08:43:00,
2013-09-23 04:44:00,45.2,43.6,28.09,NW,323,2.0,3.0,94,0.00,,,0.02,0,Wunderground v.1.15,2013-09-23 08:44:00,
2013-09-23 04:45:00,45.2,43.6,28.09,NW,323,0.0,3.0,94,0.00,,,0.02,0,Wunderground v.1.15,2013-09-23 08:45:00,
2013-09-23 04:46:00,45.2,43.6,28.09,NW,323,1.0,3.0,94,0.04,,,0.03,0,Wunderground v.1.15,2013-09-23 08:46:00,
2013-09-23 04:47:00,45.2,43.6,28.09,NW,323,2.0,4.0,94,0.04,,,0.03,0,Wunderground v.1.15,2013-09-23 08:47:00,
2013-09-23 04:49:00,45.2,43.6,28.09,NNW,335,3.0,3.0,94,0.04,,,0.03,0,Wunderground v.1.15,2013-09-23 08:49:00,
2013-09-23 04:50:00,45.2,43.6,28.09,NNW,338,4.0,4.0,94,0.04,,,0.03,0,Wunderground v.1.15,2013-09-23 08:50:00,
2013-09-23 04:51:00,45.2,43.6,28.09,NNW,334,2.0,6.0,94,0.04,,,0.03,0,Wunderground v.1.15,2013-09-23 08:51:00,
2013-09-23 04:52:00,45.2,43.6,28.09,NNW,338,3.0,6.0,94,0.04,,,0.03,0,Wunderground v.1.15,2013-09-23 08:52:00,
2013-09-23 04:55:00,45.2,43.6,28.09,North,352,0.0,6.0,94,0.04,,,0.03,0,Wunderground v.1.15,2013-09-23 08:55:00,
2013-09-23 04:56:00,45.2,43.6,28.09,North,352,1.0,6.0,94,0.04,,,0.03,0,Wunderground v.1.15,2013-09-23 08:56:00,
2013-09-23 04:57:00,45.2,43.9,28.09,NNW,347,7.0,8.0,95,0.04,,,0.03,0,Wunderground v.1.15,2013-09-23 08:57:00,
2013-09-23 05:00:00,45.1,43.8,28.09,NNW,336,3.0,4.0,95,0.04,,,0.03,0,Wunderground v.1.15,2013-09-23 09:00:00,
2013-09-23 05:01:00,45.1,43.8,28.09,NNW,336,1.0,4.0,95,0.04,,,0.03,0,Wunderground v.1.15,2013-09-23 09:01:00,
2013-09-23 05:02:00,45.1,43.8,28.09,NNW,336,2.0,4.0,95,0.04,,,0.03,0,Wunderground v.1.15,2013-09-23 09:02:00,
2013-09-23 05:05:00,45.1,43.8,28.09,North,359,0.0,6.0,95,0.00,,,0.03,0,Wunderground v.1.15,2013-09-23 09:05:00,
2013-09-23 05:06:00,45.1,43.8,28.09,NW,325,3.0,6.0,95,0.00,,,0.03,0,Wunderground v.1.15,2013-09-23 09:06:00,
2013-09-23 05:07:00,45.1,43.8,28.09,NW,321,0.0,6.0,95,0.00,,,0.03,0,Wunderground v.1.15,2013-09-23 09:07:00,
2013-09-23 05:08:00,45.1,43.8,28.09,NW,325,3.0,6.0,95,0.00,,,0.03,0,Wunderground v.1.15,2013-09-23 09:08:00,
2013-09-23 05:10:00,45.1,43.8,28.09,NW,320,5.0,5.0,95,0.00,,,0.03,0,Wunderground v.1.15,2013-09-23 09:10:00,
2013-09-23 05:11:00,45.1,43.8,28.10,NW,321,0.0,5.0,95,0.00,,,0.03,0,Wunderground v.1.15,2013-09-23 09:11:00,
2013-09-23 05:12:00,45.1,43.8,28.10,North,359,5.0,5.0,95,0.00,,,0.03,0,Wunderground v.1.15,2013-09-23 09:12:00,
2013-09-23 05:13:00,45.1,43.8,28.10,North,359,2.0,5.0,95,0.00,,,0.03,0,Wunderground v.1.15,2013-09-23 09:13:00,
2013-09-23 05:16:00,45.1,44.0,28.10,North,359,0.0,5.0,96,0.00,,,0.03,0,Wunderground v.1.15,2013-09-23 09:16:00,
2013-09-23 05:17:00,45.1,44.0,28.10,North,359,2.0,5.0,96,0.00,,,0.03,0,Wunderground v.1.15,2013-09-23 09:17:00,
2013-09-23 05:18:00,45.1,44.0,28.10,North,359,1.0,5.0,96,0.00,,,0.03,0,Wunderground v.1.15,2013-09-23 09:18:00,
2013-09-23 05:21:00,44.9,43.8,28.10,North,2,0.0,4.0,96,0.00,,,0.03,0,Wunderground v.1.15,2013-09-23 09:21:00,
2013-09-23 05:22:00,44.9,43.8,28.10,North,2,0.0,4.0,96,0.00,,,0.03,0,Wunderground v.1.15,2013-09-23 09:22:00,
2013-09-23 05:23:00,44.9,43.8,28.10,North,2,0.0,4.0,96,0.00,,,0.03,0,Wunderground v.1.15,2013-09-23 09:23:00,
2013-09-23 05:24:00,44.9,43.8,28.10,North,2,0.0,4.0,96,0.00,,,0.03,0,Wunderground v.1.15,2013-09-23 09:24:00,
2013-09-23 05:26:00,44.9,43.8,28.10,North,359,0.0,4.0,96,0.00,,,0.03,0,Wunderground v.1.15,2013-09-23 09:26:00,
2013-09-23 05:27:00,44.9,43.8,28.10,North,359,0.0,4.0,96,0.00,,,0.03,0,Wunderground v.1.15,2013-09-23 09:27:00,
2013-09-23 05:28:00,44.9,43.8,28.10,North,359,2.0,4.0,96,0.00,,,0.03,0,Wunderground v.1.15,2013-09-23 09:28:00,
2013-09-23 05:29:00,44.9,43.8,28.10,North,352,5.0,5.0,96,0.00,,,0.03,0,Wunderground v.1.15,2013-09-23 09:29:00,
2013-09-23 05:31:00,44.9,43.8,28.10,NNW,345,4.0,4.0,96,0.00,,,0.03,0,Wunderground v.1.15,2013-09-23 09:31:00,
2013-09-23 05:32:00,44.8,43.7,28.10,NNW,346,3.0,4.0,96,0.00,,,0.03,0,Wunderground v.1.15,2013-09-23 09:32:00,
2013-09-23 05:33:00,44.9,43.8,28.10,NNW,346,2.0,4.0,96,0.00,,,0.03,0,Wunderground v.1.15,2013-09-23 09:33:00,
2013-09-23 05:34:00,44.8,43.7,28.10,NNW,346,2.0,4.0,96,0.00,,,0.03,0,Wunderground v.1.15,2013-09-23 09:34:00,
2013-09-23 05:37:00,44.8,43.7,28.10,NNW,346,2.0,4.0,96,0.00,,,0.03,0,Wunderground v.1.15,2013-09-23 09:37:00,
2013-09-23 05:38:00,44.8,43.7,28.10,NNW,346,3.0,4.0,96,0.00,,,0.03,0,Wunderground v.1.15,2013-09-23 09:38:00,
2013-09-23 05:39:00,44.8,43.7,28.10,NNW,346,0.0,4.0,96,0.00,,,0.03,0,Wunderground v.1.15,2013-09-23 09:39:00,
2013-09-23 05:42:00,44.8,43.7,28.10,NNW,346,1.0,2.0,96,0.00,,,0.03,0,Wunderground v.1.15,2013-09-23 09:42:00,
2013-09-23 05:43:00,44.8,43.7,28.10,NNW,346,0.0,2.0,96,0.00,,,0.03,0,Wunderground v.1.15,2013-09-23 09:43:00,
2013-09-23 05:44:00,44.8,43.7,28.10,NNW,346,0.0,2.0,96,0.00,,,0.03,0,Wunderground v.1.15,2013-09-23 09:44:00,
2013-09-23 05:47:00,44.8,43.7,28.10,NNW,346,0.0,2.0,96,0.00,,,0.03,0,Wunderground v.1.15,2013-09-23 09:47:00,
2013-09-23 05:48:00,44.8,43.7,28.10,NNW,346,2.0,3.0,96,0.00,,,0.03,0,Wunderground v.1.15,2013-09-23 09:48:00,
2013-09-23 05:50:00,44.8,43.7,28.10,NNW,346,2.0,4.0,96,0.00,,,0.03,0,Wunderground v.1.15,2013-09-23 09:50:00,
2013-09-23 05:52:00,44.8,43.7,28.10,NNW,346,0.0,4.0,96,0.00,,,0.03,0,Wunderground v.1.15,2013-09-23 09:52:00,
2013-09-23 05:53:00,44.8,43.7,28.10,NNW,346,0.0,4.0,96,0.00,,,0.03,0,Wunderground v.1.15,2013-09-23 09:53:00,
2013-09-23 05:55:00,44.9,43.8,28.10,NNW,346,0.0,4.0,96,0.00,,,0.03,0,Wunderground v.1.15,2013-09-23 09:55:00,
2013-09-23 05:56:00,44.9,43.8,28.10,NNW,346,3.0,4.0,96,0.00,,,0.03,0,Wunderground v.1.15,2013-09-23 09:56:00,
2013-09-23 05:58:00,44.9,43.8,28.10,NNW,346,3.0,4.0,96,0.00,,,0.03,0,Wunderground v.1.15,2013-09-23 09:58:00,
2013-09-23 05:59:00,44.9,43.8,28.10,NNW,347,1.0,5.0,96,0.00,,,0.03,0,Wunderground v.1.15,2013-09-23 09:59:00,
2013-09-23 06:00:00,44.9,43.8,28.10,NW,309,2.0,9.0,96,0.00,,,0.03,0,Wunderground v.1.15,2013-09-23 10:00:00,
2013-09-23 06:01:00,44.9,43.8,28.10,NW,310,2.0,9.0,96,0.00,,,0.03,0,Wunderground v.1.15,2013-09-23 10:01:00,
2013-09-23 06:03:00,44.9,43.8,28.10,NW,326,5.0,9.0,96,0.00,,,0.03,0,Wunderground v.1.15,2013-09-23 10:03:00,
2013-09-23 06:04:00,44.9,43.8,28.10,NW,326,2.0,9.0,96,0.00,,,0.03,0,Wunderground v.1.15,2013-09-23 10:04:00,
2013-09-23 06:06:00,44.9,43.8,28.10,NW,326,2.0,9.0,96,0.00,,,0.03,0,Wunderground v.1.15,2013-09-23 10:06:00,
2013-09-23 06:08:00,44.9,43.8,28.10,NW,326,2.0,9.0,96,0.00,,,0.03,0,Wunderground v.1.15,2013-09-23 10:08:00,
2013-09-23 06:09:00,44.9,43.8,28.10,NW,326,0.0,9.0,96,0.00,,,0.03,0,Wunderground v.1.15,2013-09-23 10:09:00,
2013-09-23 06:11:00,44.9,43.8,28.10,NW,326,1.0,2.0,96,0.00,,,0.03,0,Wunderground v.1.15,2013-09-23 10:11:00,
2013-09-23 06:12:00,44.9,43.8,28.10,NW,326,3.0,4.0,96,0.00,,,0.03,0,Wunderground v.1.15,2013-09-23 10:12:00,
2013-09-23 06:13:00,44.9,43.8,28.10,NW,326,0.0,4.0,96,0.00,,,0.03,0,Wunderground v.1.15,2013-09-23 10:13:00,
2013-09-23 06:14:00,44.9,43.8,28.10,NW,326,0.0,4.0,96,0.00,,,0.03,0,Wunderground v.1.15,2013-09-23 10:14:00,
2013-09-23 06:17:00,44.9,43.8,28.10,NW,326,2.0,4.0,96,0.00,,,0.03,0,Wunderground v.1.15,2013-09-23 10:17:00,
2013-09-23 06:18:00,44.9,44.1,28.10,NW,326,0.0,4.0,97,0.00,,,0.03,0,Wunderground v.1.15,2013-09-23 10:18:00,
2013-09-23 06:19:00,44.9,44.1,28.10,NW,326,0.0,4.0,97,0.00,,,0.03,0,Wunderground v.1.15,2013-09-23 10:19:00,
2013-09-23 06:22:00,44.9,44.1,28.10,NW,326,1.0,3.0,97,0.00,,,0.03,0,Wunderground v.1.15,2013-09-23 10:22:00,
2013-09-23 06:23:00,44.9,44.1,28.10,NW,326,0.0,3.0,97,0.00,,,0.03,0,Wunderground v.1.15,2013-09-23 10:23:00,
2013-09-23 06:24:00,44.9,44.1,28.10,NW,326,1.0,3.0,97,0.00,,,0.03,0,Wunderground v.1.15,2013-09-23 10:24:00,
2013-09-23 06:27:00,44.9,44.1,28.11,NNW,334,1.0,5.0,97,0.00,,,0.03,0,Wunderground v.1.15,2013-09-23 10:27:00,
2013-09-23 06:28:00,44.9,44.1,28.11,NNW,334,0.0,5.0,97,0.00,,,0.03,0,Wunderground v.1.15,2013-09-23 10:28:00,
2013-09-23 06:29:00,44.9,44.1,28.11,NNW,334,2.0,5.0,97,0.00,,,0.03,0,Wunderground v.1.15,2013-09-23 10:29:00,
2013-09-23 06:30:00,44.9,44.1,28.11,NNW,334,1.0,2.0,97,0.00,,,0.03,0,Wunderground v.1.15,2013-09-23 10:30:00,
2013-09-23 06:32:00,44.9,44.1,28.11,NNW,334,0.0,2.0,97,0.00,,,0.03,0,Wunderground v.1.15,2013-09-23 10:32:00,
2013-09-23 06:34:00,44.9,44.1,28.11,NNW,334,0.0,2.0,97,0.00,,,0.03,0,Wunderground v.1.15,2013-09-23 10:34:00,
2013-09-23 06:35:00,44.9,44.1,28.11,NNW,334,2.0,2.0,97,0.00,,,0.04,0,Wunderground v.1.15,2013-09-23 10:35:00,
2013-09-23 06:38:00,44.9,44.1,28.11,NNW,334,1.0,3.0,97,0.00,,,0.04,0,Wunderground v.1.15,2013-09-23 10:38:00,
2013-09-23 06:39:00,45.1,44.3,28.11,NNW,334,0.0,3.0,97,0.00,,,0.04,0,Wunderground v.1.15,2013-09-23 10:39:00,
2013-09-23 06:41:00,44.9,44.1,28.11,NNW,328,4.0,7.0,97,0.00,,,0.04,0,Wunderground v.1.15,2013-09-23 10:41:00,
2013-09-23 06:43:00,44.9,44.1,28.12,North,356,3.0,7.0,97,0.00,,,0.04,0,Wunderground v.1.15,2013-09-23 10:43:00,
2013-09-23 06:44:00,44.9,44.1,28.12,NNW,347,1.0,7.0,97,0.00,,,0.04,0,Wunderground v.1.15,2013-09-23 10:44:00,
2013-09-23 06:46:00,44.9,44.1,28.12,NNW,347,0.0,7.0,97,0.00,,,0.04,0,Wunderground v.1.15,2013-09-23 10:46:00,
2013-09-23 06:48:00,44.9,44.1,28.12,NNW,337,2.0,7.0,97,0.00,,,0.04,0,Wunderground v.1.15,2013-09-23 10:48:00,
2013-09-23 06:49:00,44.9,44.1,28.12,NNW,336,1.0,7.0,97,0.00,,,0.04,0,Wunderground v.1.15,2013-09-23 10:49:00,
2013-09-23 06:50:00,44.9,43.8,28.12,NNW,336,0.0,4.0,96,0.00,,,0.04,0,Wunderground v.1.15,2013-09-23 10:50:00,
2013-09-23 06:51:00,44.9,43.8,28.12,North,349,2.0,4.0,96,0.00,,,0.04,0,Wunderground v.1.15,2013-09-23 10:51:00,
2013-09-23 06:54:00,44.8,43.7,28.12,NNW,331,2.0,7.0,96,0.00,,,0.04,0,Wunderground v.1.15,2013-09-23 10:54:00,
2013-09-23 06:55:00,44.8,43.7,28.12,NNW,333,2.0,7.0,96,0.00,,,0.04,0,Wunderground v.1.15,2013-09-23 10:55:00,
2013-09-23 06:56:00,44.8,43.7,28.12,NNW,332,1.0,7.0,96,0.00,,,0.04,0,Wunderground v.1.15,2013-09-23 10:56:00,
2013-09-23 06:59:00,44.6,43.5,28.12,NNW,330,3.0,7.0,96,0.00,,,0.04,0,Wunderground v.1.15,2013-09-23 10:59:00,
2013-09-23 07:00:00,44.6,43.5,28.12,NNW,333,4.0,4.0,96,0.00,,,0.04,0,Wunderground v.1.15,2013-09-23 11:00:00,
2013-09-23 07:01:00,44.6,43.5,28.12,NNW,333,4.0,4.0,96,0.00,,,0.04,0,Wunderground v.1.15,2013-09-23 11:01:00,
2013-09-23 07:04:00,44.6,43.5,28.12,NNW,331,1.0,4.0,96,0.00,,,0.04,0,Wunderground v.1.15,2013-09-23 11:04:00,
2013-09-23 07:05:00,44.6,43.5,28.12,NNW,331,0.0,4.0,96,0.00,,,0.04,0,Wunderground v.1.15,2013-09-23 11:05:00,
2013-09-23 07:06:00,44.6,43.5,28.12,NNW,330,0.0,4.0,96,0.00,,,0.04,0,Wunderground v.1.15,2013-09-23 11:06:00,
2013-09-23 07:10:00,44.6,43.5,28.12,North,352,1.0,5.0,96,0.00,,,0.04,5,Wunderground v.1.15,2013-09-23 11:10:00,
2013-09-23 07:11:00,44.6,43.5,28.13,North,352,0.0,5.0,96,0.00,,,0.04,5,Wunderground v.1.15,2013-09-23 11:11:00,
2013-09-23 07:16:00,44.6,43.5,28.13,North,356,1.0,5.0,96,0.00,,,0.04,7,Wunderground v.1.15,2013-09-23 11:16:00,
2013-09-23 07:17:00,44.6,43.5,28.13,North,356,0.0,5.0,96,0.00,,,0.04,7,Wunderground v.1.15,2013-09-23 11:17:00,
2013-09-23 07:21:00,44.6,43.5,28.13,North,356,0.0,1.0,96,0.00,,,0.04,11,Wunderground v.1.15,2013-09-23 11:21:00,
2013-09-23 07:22:00,44.6,43.5,28.13,North,356,0.0,1.0,96,0.00,,,0.04,11,Wunderground v.1.15,2013-09-23 11:22:00,
2013-09-23 07:23:00,44.6,43.5,28.13,North,356,0.0,1.0,96,0.00,,,0.04,12,Wunderground v.1.15,2013-09-23 11:23:00,
2013-09-23 07:27:00,44.6,43.5,28.14,North,356,0.0,1.0,96,0.00,,,0.04,16,Wunderground v.1.15,2013-09-23 11:27:00,
2013-09-23 07:28:00,44.6,43.5,28.14,North,356,0.0,1.0,96,0.00,,,0.04,19,Wunderground v.1.15,2013-09-23 11:28:00,
2013-09-23 07:32:00,44.6,43.5,28.14,North,356,1.0,1.0,96,0.00,,,0.04,25,Wunderground v.1.15,2013-09-23 11:32:00,
2013-09-23 07:33:00,44.6,43.5,28.14,North,356,3.0,3.0,96,0.00,,,0.04,26,Wunderground v.1.15,2013-09-23 11:33:00,
2013-09-23 07:34:00,44.6,43.5,28.14,North,356,2.0,3.0,96,0.00,,,0.04,28,Wunderground v.1.15,2013-09-23 11:34:00,
2013-09-23 07:37:00,44.6,43.5,28.14,North,356,0.0,3.0,96,0.00,,,0.04,33,Wunderground v.1.15,2013-09-23 11:37:00,
2013-09-23 07:38:00,44.6,43.5,28.14,North,356,0.0,3.0,96,0.00,,,0.04,33,Wunderground v.1.15,2013-09-23 11:38:00,
2013-09-23 07:39:00,44.6,43.5,28.14,North,356,0.0,3.0,96,0.00,,,0.04,32,Wunderground v.1.15,2013-09-23 11:39:00,
2013-09-23 07:42:00,44.6,43.5,28.14,North,356,2.0,2.0,96,0.00,,,0.04,40,Wunderground v.1.15,2013-09-23 11:42:00,
2013-09-23 07:43:00,44.6,43.5,28.14,North,356,0.0,2.0,96,0.00,,,0.04,40,Wunderground v.1.15,2013-09-23 11:43:00,
2013-09-23 07:44:00,44.6,43.5,28.14,North,356,0.0,2.0,96,0.00,,,0.04,37,Wunderground v.1.15,2013-09-23 11:44:00,
2013-09-23 07:47:00,44.8,43.7,28.14,North,356,0.0,3.0,96,0.00,,,0.04,42,Wunderground v.1.15,2013-09-23 11:47:00,
2013-09-23 07:48:00,44.8,43.7,28.14,North,356,0.0,3.0,96,0.00,,,0.04,47,Wunderground v.1.15,2013-09-23 11:48:00,
2013-09-23 07:49:00,44.8,43.7,28.14,North,356,0.0,3.0,96,0.00,,,0.04,51,Wunderground v.1.15,2013-09-23 11:49:00,
2013-09-23 07:52:00,44.8,43.7,28.14,North,356,0.0,1.0,96,0.00,,,0.04,67,Wunderground v.1.15,2013-09-23 11:52:00,
2013-09-23 07:53:00,44.8,43.7,28.14,North,356,0.0,1.0,96,0.00,,,0.04,69,Wunderground v.1.15,2013-09-23 11:53:00,
2013-09-23 07:54:00,44.8,43.7,28.14,North,356,0.0,1.0,96,0.00,,,0.04,69,Wunderground v.1.15,2013-09-23 11:54:00,
2013-09-23 07:55:00,44.9,43.8,28.14,North,356,0.0,1.0,96,0.00,,,0.04,63,Wunderground v.1.15,2013-09-23 11:55:00,
2013-09-23 07:57:00,44.9,43.8,28.15,North,356,0.0,1.0,96,0.00,,,0.04,54,Wunderground v.1.15,2013-09-23 11:57:00,
2013-09-23 07:59:00,44.9,43.8,28.15,North,356,0.0,1.0,96,0.00,,,0.04,54,Wunderground v.1.15,2013-09-23 11:59:00,
2013-09-23 08:00:00,45.1,44.0,28.15,North,356,0.0,0.0,96,0.00,,,0.04,51,Wunderground v.1.15,2013-09-23 12:00:00,
2013-09-23 08:03:00,45.1,44.0,28.15,North,356,0.0,0.0,96,0.00,,,0.04,47,Wunderground v.1.15,2013-09-23 12:03:00,
2013-09-23 08:04:00,45.2,44.1,28.15,North,356,1.0,2.0,96,0.00,,,0.04,46,Wunderground v.1.15,2013-09-23 12:04:00,
2013-09-23 08:05:00,45.2,44.1,28.15,North,357,2.0,3.0,96,0.00,,,0.04,51,Wunderground v.1.15,2013-09-23 12:05:00,
2013-09-23 08:06:00,45.2,44.1,28.15,North,358,3.0,4.0,96,0.00,,,0.04,51,Wunderground v.1.15,2013-09-23 12:06:00,
2013-09-23 08:08:00,45.2,44.1,28.15,North,358,0.0,4.0,96,0.00,,,0.04,77,Wunderground v.1.15,2013-09-23 12:08:00,
2013-09-23 08:09:00,45.2,44.1,28.15,North,358,0.0,4.0,96,0.00,,,0.04,81,Wunderground v.1.15,2013-09-23 12:09:00,
2013-09-23 08:11:00,45.4,44.3,28.15,North,357,0.0,3.0,96,0.00,,,0.04,142,Wunderground v.1.15,2013-09-23 12:11:00,
2013-09-23 08:13:00,45.5,44.4,28.15,North,358,0.0,3.0,96,0.00,,,0.04,86,Wunderground v.1.15,2013-09-23 12:13:00,
2013-09-23 08:14:00,45.7,44.6,28.15,North,359,2.0,4.0,96,0.00,,,0.04,88,Wunderground v.1.15,2013-09-23 12:14:00,
2013-09-23 08:16:00,45.7,44.6,28.15,North,359,0.0,4.0,96,0.00,,,0.04,70,Wunderground v.1.15,2013-09-23 12:16:00,
2013-09-23 08:18:00,45.8,44.7,28.15,North,359,2.0,4.0,96,0.00,,,0.04,72,Wunderground v.1.15,2013-09-23 12:18:00,
2013-09-23 08:19:00,45.8,44.7,28.15,NNW,340,2.0,6.0,96,0.00,,,0.04,63,Wunderground v.1.15,2013-09-23 12:19:00,
2013-09-23 08:20:00,45.8,44.7,28.15,NNW,340,2.0,2.0,96,0.00,,,0.04,86,Wunderground v.1.15,2013-09-23 12:20:00,
2013-09-23 08:21:00,45.8,44.4,28.15,NNW,340,1.0,2.0,95,0.00,,,0.04,60,Wunderground v.1.15,2013-09-23 12:21:00,
2013-09-23 08:23:00,45.8,44.4,28.15,NNW,340,0.0,2.0,95,0.00,,,0.04,67,Wunderground v.1.15,2013-09-23 12:23:00,
2013-09-23 08:25:00,46.0,44.6,28.15,NNW,340,0.0,2.0,95,0.00,,,0.04,301,Wunderground v.1.15,2013-09-23 12:25:00,
2013-09-23 08:26:00,46.1,44.7,28.15,NNW,340,0.0,2.0,95,0.00,,,0.04,290,Wunderground v.1.15,2013-09-23 12:26:00,
2013-09-23 08:27:00,46.2,44.8,28.15,NNW,340,0.0,2.0,95,0.00,,,0.04,288,Wunderground v.1.15,2013-09-23 12:27:00,
2013-09-23 08:28:00,46.7,45.6,28.15,NNW,340,1.0,2.0,96,0.00,,,0.04,299,Wunderground v.1.15,2013-09-23 12:28:00,
2013-09-23 08:29:00,46.8,45.7,28.15,NNE,22,4.0,4.0,96,0.00,,,0.04,302,Wunderground v.1.15,2013-09-23 12:29:00,
2013-09-23 08:30:00,47.3,46.2,28.15,NNE,13,5.0,7.0,96,0.00,,,0.04,292,Wunderground v.1.15,2013-09-23 12:30:00,
2013-09-23 08:31:00,47.4,46.3,28.15,NNE,15,3.0,7.0,96,0.00,,,0.04,322,Wunderground v.1.15,2013-09-23 12:31:00,
2013-09-23 08:32:00,47.9,46.8,28.15,NNE,15,3.0,7.0,96,0.00,,,0.04,330,Wunderground v.1.15,2013-09-23 12:32:00,
2013-09-23 08:34:00,48.3,47.2,28.15,NNE,15,0.0,7.0,96,0.00,,,0.04,367,Wunderground v.1.15,2013-09-23 12:34:00,
2013-09-23 08:35:00,48.5,47.4,28.15,NNE,15,0.0,7.0,96,0.00,,,0.04,369,Wunderground v.1.15,2013-09-23 12:35:00,
2013-09-23 08:36:00,48.9,47.8,28.15,NNE,15,2.0,7.0,96,0.00,,,0.04,359,Wunderground v.1.15,2013-09-23 12:36:00,
2013-09-23 08:38:00,49.2,47.5,28.15,NE,54,5.0,7.0,94,0.00,,,0.04,373,Wunderground v.1.15,2013-09-23 12:38:00,
2013-09-23 08:39:00,49.2,47.0,28.15,ENE,58,4.0,7.0,92,0.00,,,0.04,373,Wunderground v.1.15,2013-09-23 12:39:00,
2013-09-23 08:40:00,49.1,46.9,28.15,ENE,58,3.0,4.0,92,0.00,,,0.04,371,Wunderground v.1.15,2013-09-23 12:40:00,
2013-09-23 08:42:00,49.1,46.3,28.15,ENE,58,0.0,4.0,90,0.00,,,0.04,369,Wunderground v.1.15,2013-09-23 12:42:00,
2013-09-23 08:43:00,49.2,46.7,28.15,ENE,58,0.0,4.0,91,0.00,,,0.04,369,Wunderground v.1.15,2013-09-23 12:43:00,
2013-09-23 08:44:00,49.2,46.4,28.15,ENE,58,3.0,4.0,90,0.00,,,0.04,410,Wunderground v.1.15,2013-09-23 12:44:00,
2013-09-23 08:45:00,49.4,46.6,28.15,ENE,58,0.0,4.0,90,0.00,,,0.04,392,Wunderground v.1.15,2013-09-23 12:45:00,
2013-09-23 08:47:00,50.1,47.9,28.15,NNE,19,2.0,5.0,92,0.00,,,0.04,476,Wunderground v.1.15,2013-09-23 12:47:00,
2013-09-23 08:49:00,50.5,48.3,28.15,NNE,18,0.0,5.0,92,0.00,,,0.04,483,Wunderground v.1.15,2013-09-23 12:49:00,
2013-09-23 08:50:00,50.7,48.5,28.15,North,11,0.0,5.0,92,0.00,,,0.04,163,Wunderground v.1.15,2013-09-23 12:50:00,
2013-09-23 08:52:00,50.8,47.7,28.15,NE,34,9.0,11.0,89,0.00,,,0.04,151,Wunderground v.1.15,2013-09-23 12:52:00,
2013-09-23 08:54:00,50.7,46.7,28.15,North,11,6.0,11.0,86,0.00,,,0.04,151,Wunderground v.1.15,2013-09-23 12:54:00,
2013-09-23 08:55:00,50.7,47.3,28.15,NNE,31,5.0,11.0,88,0.00,,,0.04,151,Wunderground v.1.15,2013-09-23 12:55:00,
2013-09-23 08:57:00,51.0,47.6,28.14,North,11,2.0,11.0,88,0.00,,,0.04,480,Wunderground v.1.15,2013-09-23 12:57:00,
2013-09-23 08:59:00,51.1,47.7,28.14,NNE,20,2.0,11.0,88,0.00,,,0.04,432,Wunderground v.1.15,2013-09-23 12:59:00,
2013-09-23 09:00:00,51.4,48.0,28.14,North,356,1.0,6.0,88,0.00,,,0.04,445,Wunderground v.1.15,2013-09-23 13:00:00,
2013-09-23 09:01:00,51.6,48.2,28.14,North,359,3.0,6.0,88,0.00,,,0.04,445,Wunderground v.1.15,2013-09-23 13:01:00,
2013-09-23 09:03:00,51.7,48.0,28.14,NW,311,2.0,6.0,87,0.00,,,0.04,149,Wunderground v.1.15,2013-09-23 13:03:00,
2013-09-23 09:04:00,51.6,46.0,28.14,North,349,4.0,7.0,81,0.00,,,0.04,179,Wunderground v.1.15,2013-09-23 13:04:00,
2013-09-23 09:05:00,51.6,46.0,28.14,NNW,347,0.0,7.0,81,0.00,,,0.04,179,Wunderground v.1.15,2013-09-23 13:05:00,
2013-09-23 09:06:00,51.6,46.0,28.14,NNW,347,0.0,7.0,81,0.00,,,0.04,179,Wunderground v.1.15,2013-09-23 13:06:00,
2013-09-23 09:07:00,51.6,46.6,28.14,NNW,347,0.0,7.0,83,0.00,,,0.04,179,Wunderground v.1.15,2013-09-23 13:07:00,
2013-09-23 09:08:00,51.6,46.3,28.14,WNW,291,4.0,7.0,82,0.00,,,0.04,116,Wunderground v.1.15,2013-09-23 13:08:00,
2013-09-23 09:10:00,51.0,44.4,28.14,NW,314,6.0,7.0,78,0.00,,,0.04,118,Wunderground v.1.15,2013-09-23 13:10:00,
2013-09-23 09:12:00,50.5,43.6,28.15,North,351,2.0,9.0,77,0.00,,,0.04,83,Wunderground v.1.15,2013-09-23 13:12:00,
2013-09-23 09:13:00,50.2,43.6,28.15,West,280,4.0,9.0,78,0.00,,,0.04,107,Wunderground v.1.15,2013-09-23 13:13:00,
2013-09-23 09:15:00,49.8,42.9,28.15,North,349,2.0,9.0,77,0.00,,,0.04,176,Wunderground v.1.15,2013-09-23 13:15:00,
2013-09-23 09:17:00,49.4,42.8,28.15,NW,304,2.0,11.0,78,0.00,,,0.04,260,Wunderground v.1.15,2013-09-23 13:17:00,
2013-09-23 09:18:00,49.2,42.6,28.15,North,8,6.0,11.0,78,0.00,,,0.04,285,Wunderground v.1.15,2013-09-23 13:18:00,
2013-09-23 09:20:00,48.9,42.3,28.15,North,350,4.0,8.0,78,0.00,,,0.04,158,Wunderground v.1.15,2013-09-23 13:20:00,
2013-09-23 09:21:00,48.9,42.3,28.15,North,351,4.0,8.0,78,0.00,,,0.04,158,Wunderground v.1.15,2013-09-23 13:21:00,
2013-09-23 09:22:00,48.8,42.9,28.15,NW,319,3.0,8.0,80,0.00,,,0.04,202,Wunderground v.1.15,2013-09-23 13:22:00,
2013-09-23 09:23:00,48.8,42.6,28.15,West,278,1.0,8.0,79,0.00,,,0.04,174,Wunderground v.1.15,2013-09-23 13:23:00,
2013-09-23 09:25:00,48.3,42.1,28.15,WNW,287,2.0,8.0,79,0.00,,,0.04,149,Wunderground v.1.15,2013-09-23 13:25:00,
2013-09-23 09:26:00,48.3,42.1,28.15,WNW,287,1.0,8.0,79,0.00,,,0.04,149,Wunderground v.1.15,2013-09-23 13:26:00,
2013-09-23 09:28:00,48.2,42.6,28.15,WNW,287,3.0,8.0,81,0.00,,,0.04,144,Wunderground v.1.15,2013-09-23 13:28:00,
2013-09-23 09:29:00,48.2,42.6,28.15,NW,311,1.0,8.0,81,0.00,,,0.04,160,Wunderground v.1.15,2013-09-23 13:29:00,
2013-09-23 09:30:00,48.0,42.4,28.15,NW,316,0.0,4.0,81,0.00,,,0.04,165,Wunderground v.1.15,2013-09-23 13:30:00,
2013-09-23 09:31:00,48.0,42.4,28.15,NW,316,2.0,4.0,81,0.00,,,0.04,165,Wunderground v.1.15,2013-09-23 13:31:00,
2013-09-23 09:33:00,48.0,42.4,28.15,NE,53,3.0,5.0,81,0.00,,,0.04,148,Wunderground v.1.15,2013-09-23 13:33:00,
2013-09-23 09:34:00,48.0,42.4,28.15,NNW,342,4.0,5.0,81,0.00,,,0.04,142,Wunderground v.1.15,2013-09-23 13:34:00,
2013-09-23 09:36:00,48.0,42.4,28.15,North,1,0.0,5.0,81,0.00,,,0.04,139,Wunderground v.1.15,2013-09-23 13:36:00,
2013-09-23 09:38:00,47.9,42.0,28.15,NNW,339,4.0,6.0,80,0.00,,,0.04,148,Wunderground v.1.15,2013-09-23 13:38:00,
2013-09-23 09:39:00,47.9,41.7,28.15,NNW,339,2.0,6.0,79,0.00,,,0.04,148,Wunderground v.1.15,2013-09-23 13:39:00,
2013-09-23 09:41:00,47.9,41.7,28.16,NNW,342,3.0,4.0,79,0.00,,,0.04,148,Wunderground v.1.15,2013-09-23 13:41:00,
2013-09-23 09:44:00,47.9,41.7,28.16,North,10,10.0,10.0,79,0.00,,,0.04,172,Wunderground v.1.15,2013-09-23 13:44:00,
2013-09-23 09:45:00,47.9,42.3,28.16,North,349,3.0,10.0,81,0.00,,,0.04,186,Wunderground v.1.15,2013-09-23 13:45:00,
2013-09-23 09:46:00,47.9,42.0,28.16,NNW,348,2.0,12.0,80,0.00,,,0.04,169,Wunderground v.1.15,2013-09-23 13:46:00,
2013-09-23 09:47:00,47.9,42.3,28.16,NNW,328,3.0,12.0,81,0.00,,,0.04,174,Wunderground v.1.15,2013-09-23 13:47:00,
2013-09-23 09:49:00,47.9,42.3,28.16,North,356,5.0,12.0,81,0.00,,,0.04,204,Wunderground v.1.15,2013-09-23 13:49:00,
2013-09-23 09:51:00,47.9,42.0,28.16,NNW,346,2.0,9.0,80,0.00,,,0.04,229,Wunderground v.1.15,2013-09-23 13:51:00,
2013-09-23 09:53:00,48.0,41.8,28.16,WNW,300,3.0,9.0,79,0.00,,,0.04,214,Wunderground v.1.15,2013-09-23 13:53:00,
2013-09-23 09:54:00,48.0,41.8,28.16,WNW,300,2.0,9.0,79,0.00,,,0.04,167,Wunderground v.1.15,2013-09-23 13:54:00,
2013-09-23 09:56:00,48.2,41.7,28.16,WNW,285,0.0,9.0,78,0.00,,,0.04,237,Wunderground v.1.15,2013-09-23 13:56:00,
2013-09-23 09:58:00,48.5,41.6,28.16,WNW,302,3.0,10.0,77,0.00,,,0.04,489,Wunderground v.1.15,2013-09-23 13:58:00,
2013-09-23 09:59:00,48.6,42.7,28.16,NW,305,4.0,10.0,80,0.00,,,0.04,489,Wunderground v.1.15,2013-09-23 13:59:00,
2013-09-23 10:00:00,48.8,42.2,28.16,WNW,295,2.0,6.0,78,0.00,,,0.04,489,Wunderground v.1.15,2013-09-23 14:00:00,
2013-09-23 10:01:00,49.2,43.3,28.16,WNW,290,3.0,6.0,80,0.00,,,0.04,696,Wunderground v.1.15,2013-09-23 14:01:00,
2013-09-23 10:02:00,49.5,42.6,28.16,North,0,2.0,6.0,77,0.00,,,0.04,696,Wunderground v.1.15,2013-09-23 14:02:00,
2013-09-23 10:03:00,49.8,43.9,28.16,NNW,345,3.0,6.0,80,0.00,,,0.04,696,Wunderground v.1.15,2013-09-23 14:03:00,
2013-09-23 10:04:00,49.9,43.0,28.16,NNW,347,2.0,6.0,77,0.00,,,0.04,696,Wunderground v.1.15,2013-09-23 14:04:00,
2013-09-23 10:05:00,50.4,44.1,28.16,North,1,2.0,6.0,79,0.00,,,0.04,696,Wunderground v.1.15,2013-09-23 14:05:00,
2013-09-23 10:07:00,50.8,45.2,28.16,North,359,6.0,10.0,81,0.00,,,0.04,696,Wunderground v.1.15,2013-09-23 14:07:00,
2013-09-23 10:08:00,51.3,44.7,28.16,North,359,5.0,10.0,78,0.00,,,0.04,202,Wunderground v.1.15,2013-09-23 14:08:00,
2013-09-23 10:09:00,51.4,44.4,28.16,North,353,5.0,10.0,77,0.00,,,0.04,200,Wunderground v.1.15,2013-09-23 14:09:00,
2013-09-23 10:10:00,51.6,44.3,28.16,North,4,2.0,12.0,76,0.00,,,0.04,200,Wunderground v.1.15,2013-09-23 14:10:00,
2013-09-23 10:12:00,51.4,42.7,28.16,West,271,2.0,12.0,72,0.00,,,0.04,183,Wunderground v.1.15,2013-09-23 14:12:00,
2013-09-23 10:14:00,51.3,42.2,28.16,NNW,338,3.0,12.0,71,0.00,,,0.04,174,Wunderground v.1.15,2013-09-23 14:14:00,
2013-09-23 10:15:00,51.1,42.0,28.16,NNW,335,2.0,12.0,71,0.00,,,0.04,172,Wunderground v.1.15,2013-09-23 14:15:00,
2013-09-23 10:17:00,50.8,41.4,28.16,NNW,347,3.0,12.0,70,0.00,,,0.04,188,Wunderground v.1.15,2013-09-23 14:17:00,
2013-09-23 10:19:00,50.5,41.8,28.16,North,359,6.0,12.0,72,0.00,,,0.04,199,Wunderground v.1.15,2013-09-23 14:19:00,
2013-09-23 10:20:00,50.4,41.7,28.16,NNW,338,4.0,6.0,72,0.00,,,0.04,199,Wunderground v.1.15,2013-09-23 14:20:00,
2013-09-23 10:21:00,50.2,41.2,28.16,NNW,339,7.0,13.0,71,0.00,,,0.04,204,Wunderground v.1.15,2013-09-23 14:21:00,
2013-09-23 10:23:00,49.9,40.5,28.16,NW,317,3.0,13.0,70,0.00,,,0.04,207,Wunderground v.1.15,2013-09-23 14:23:00,
2013-09-23 10:24:00,49.8,40.8,28.16,NNW,336,3.0,13.0,71,0.00,,,0.04,221,Wunderground v.1.15,2013-09-23 14:24:00,
2013-09-23 10:25:00,49.6,40.6,28.16,NNW,328,11.0,13.0,71,0.00,,,0.04,186,Wunderground v.1.15,2013-09-23 14:25:00,
2013-09-23 10:26:00,49.5,40.5,28.17,NW,321,1.0,13.0,71,0.00,,,0.04,165,Wunderground v.1.15,2013-09-23 14:26:00,
2013-09-23 10:28:00,49.4,41.1,28.17,NNW,335,5.0,13.0,73,0.00,,,0.04,195,Wunderground v.1.15,2013-09-23 14:28:00,
2013-09-23 10:30:00,49.4,41.5,28.17,NW,318,6.0,8.0,74,0.00,,,0.04,195,Wunderground v.1.15,2013-09-23 14:30:00,
2013-09-23 10:32:00,49.4,40.0,28.17,NNW,345,4.0,10.0,70,0.00,,,0.04,188,Wunderground v.1.15,2013-09-23 14:32:00,
2013-09-23 10:33:00,49.4,40.0,28.17,NNW,340,7.0,11.0,70,0.00,,,0.04,183,Wunderground v.1.15,2013-09-23 14:33:00,
2013-09-23 10:35:00,49.4,39.7,28.17,WNW,297,3.0,12.0,69,0.00,,,0.04,206,Wunderground v.1.15,2013-09-23 14:35:00,
2013-09-23 10:36:00,49.2,39.5,28.17,NNW,331,4.0,12.0,69,0.00,,,0.04,229,Wunderground v.1.15,2013-09-23 14:36:00,
2013-09-23 10:37:00,49.2,39.5,28.17,WNW,293,4.0,12.0,69,0.00,,,0.04,271,Wunderground v.1.15,2013-09-23 14:37:00,
2013-09-23 10:38:00,49.2,39.8,28.17,NNE,16,5.0,12.0,70,0.00,,,0.04,271,Wunderground v.1.15,2013-09-23 14:38:00,
2013-09-23 10:40:00,49.4,41.1,28.17,North,359,4.0,5.0,73,0.00,,,0.04,378,Wunderground v.1.15,2013-09-23 14:40:00,
2013-09-23 10:41:00,49.5,41.2,28.17,NNW,343,6.0,8.0,73,0.00,,,0.04,427,Wunderground v.1.15,2013-09-23 14:41:00,
2013-09-23 10:42:00,49.5,41.2,28.17,NNW,336,4.0,8.0,73,0.00,,,0.04,427,Wunderground v.1.15,2013-09-23 14:42:00,
2013-09-23 10:43:00,49.6,41.7,28.17,North,359,3.0,8.0,74,0.00,,,0.04,427,Wunderground v.1.15,2013-09-23 14:43:00,
2013-09-23 10:45:00,50.2,43.3,28.17,North,7,5.0,11.0,77,0.00,,,0.04,322,Wunderground v.1.15,2013-09-23 14:45:00,
2013-09-23 10:46:00,50.5,43.2,28.17,North,1,6.0,12.0,76,0.00,,,0.04,332,Wunderground v.1.15,2013-09-23 14:46:00,
2013-09-23 10:47:00,50.5,43.2,28.17,NNE,20,10.0,12.0,76,0.00,,,0.04,332,Wunderground v.1.15,2013-09-23 14:47:00,
2013-09-23 10:48:00,50.7,42.7,28.17,NNE,21,9.0,12.0,74,0.00,,,0.04,332,Wunderground v.1.15,2013-09-23 14:48:00,
2013-09-23 10:50:00,50.8,41.7,28.17,North,1,0.0,5.0,71,0.00,,,0.04,279,Wunderground v.1.15,2013-09-23 14:50:00,
2013-09-23 10:52:00,50.8,41.7,28.17,North,1,3.0,5.0,71,0.00,,,0.04,260,Wunderground v.1.15,2013-09-23 14:52:00,
2013-09-23 10:53:00,50.8,41.7,28.17,NNE,21,5.0,7.0,71,0.00,,,0.04,260,Wunderground v.1.15,2013-09-23 14:53:00,
2013-09-23 10:56:00,51.0,41.9,28.17,NW,314,2.0,7.0,71,0.00,,,0.04,977,Wunderground v.1.15,2013-09-23 14:56:00,
2013-09-23 10:57:00,51.0,42.6,28.17,West,278,9.0,10.0,73,0.00,,,0.04,977,Wunderground v.1.15,2013-09-23 14:57:00,
2013-09-23 10:58:00,51.0,40.8,28.17,NW,304,2.0,10.0,68,0.00,,,0.04,313,Wunderground v.1.15,2013-09-23 14:58:00,
2013-09-23 11:02:00,51.0,41.6,28.17,North,1,3.0,13.0,70,0.00,,,0.04,290,Wunderground v.1.15,2013-09-23 15:02:00,
2013-09-23 11:03:00,51.0,41.9,28.17,North,1,1.0,13.0,71,0.00,,,0.04,285,Wunderground v.1.15,2013-09-23 15:03:00,
2013-09-23 11:04:00,51.0,41.9,28.17,North,1,1.0,13.0,71,0.00,,,0.04,279,Wunderground v.1.15,2013-09-23 15:04:00,
2013-09-23 11:08:00,51.0,41.2,28.17,North,1,4.0,13.0,69,0.00,,,0.04,272,Wunderground v.1.15,2013-09-23 15:08:00,
2013-09-23 11:09:00,50.8,41.4,28.17,West,279,9.0,13.0,70,0.00,,,0.04,279,Wunderground v.1.15,2013-09-23 15:09:00,
2013-09-23 11:13:00,50.5,41.1,28.17,WNW,293,1.0,9.0,70,0.00,,,0.04,283,Wunderground v.1.15,2013-09-23 15:13:00,
2013-09-23 11:14:00,50.5,41.1,28.17,North,0,4.0,9.0,70,0.00,,,0.04,283,Wunderground v.1.15,2013-09-23 15:14:00,
2013-09-23 11:18:00,50.2,40.8,28.17,NW,312,4.0,10.0,70,0.00,,,0.04,165,Wunderground v.1.15,2013-09-23 15:18:00,
2013-09-23 11:19:00,50.2,40.8,28.17,NW,314,0.0,10.0,70,0.00,,,0.04,165,Wunderground v.1.15,2013-09-23 15:19:00,
2013-09-23 11:23:00,50.2,41.9,28.17,North,351,3.0,8.0,73,0.00,,,0.04,828,Wunderground v.1.15,2013-09-23 15:23:00,
2013-09-23 11:24:00,50.2,41.9,28.17,North,351,3.0,8.0,73,0.00,,,0.04,828,Wunderground v.1.15,2013-09-23 15:24:00,
2013-09-23 11:25:00,50.5,43.2,28.17,North,356,1.0,8.0,76,0.00,,,0.04,854,Wunderground v.1.15,2013-09-23 15:25:00,
2013-09-23 11:29:00,51.7,44.0,28.17,NNE,13,2.0,8.0,75,0.00,,,0.04,301,Wunderground v.1.15,2013-09-23 15:29:00,
2013-09-23 11:30:00,52.0,43.6,28.17,NNE,14,6.0,10.0,73,0.00,,,0.04,385,Wunderground v.1.15,2013-09-23 15:30:00,
2013-09-23 11:34:00,52.5,42.6,28.17,NE,41,10.0,11.0,69,0.00,,,0.04,350,Wunderground v.1.15,2013-09-23 15:34:00,
2013-09-23 11:35:00,52.3,41.3,28.17,North,2,6.0,11.0,66,0.00,,,0.04,345,Wunderground v.1.15,2013-09-23 15:35:00,
2013-09-23 11:36:00,52.5,43.7,28.17,North,1,3.0,11.0,72,0.00,,,0.04,404,Wunderground v.1.15,2013-09-23 15:36:00,
2013-09-23 11:39:00,52.5,42.6,28.17,West,262,4.0,11.0,69,0.00,,,0.04,404,Wunderground v.1.15,2013-09-23 15:39:00,
2013-09-23 11:40:00,52.5,42.6,28.17,West,264,3.0,4.0,69,0.00,,,0.04,295,Wunderground v.1.15,2013-09-23 15:40:00,
2013-09-23 11:42:00,52.5,42.6,28.17,NNW,336,10.0,10.0,69,0.00,,,0.04,276,Wunderground v.1.15,2013-09-23 15:42:00,
2013-09-23 11:44:00,52.3,41.7,28.17,WNW,285,3.0,10.0,67,0.00,,,0.04,288,Wunderground v.1.15,2013-09-23 15:44:00,
2013-09-23 11:45:00,52.3,41.3,28.17,North,359,6.0,10.0,66,0.00,,,0.04,283,Wunderground v.1.15,2013-09-23 15:45:00,
2013-09-23 11:47:00,52.0,41.8,28.17,NW,309,6.0,10.0,68,0.00,,,0.04,297,Wunderground v.1.15,2013-09-23 15:47:00,
2013-09-23 11:50:00,51.9,41.3,28.17,North,349,5.0,7.0,67,0.00,,,0.04,327,Wunderground v.1.15,2013-09-23 15:50:00,
2013-09-23 11:53:00,51.7,41.1,28.17,NW,309,3.0,11.0,67,0.00,,,0.04,373,Wunderground v.1.15,2013-09-23 15:53:00,
2013-09-23 11:55:00,51.7,42.2,28.17,North,359,1.0,11.0,70,0.00,,,0.04,329,Wunderground v.1.15,2013-09-23 15:55:00,
2013-09-23 11:56:00,51.7,41.9,28.17,NNW,329,2.0,11.0,69,0.00,,,0.04,329,Wunderground v.1.15,2013-09-23 15:56:00,
2013-09-23 11:59:00,51.6,41.0,28.18,WNW,283,5.0,11.0,67,0.00,,,0.04,271,Wunderground v.1.15,2013-09-23 15:59:00,
2013-09-23 12:00:00,51.4,40.0,28.18,WNW,293,2.0,9.0,65,0.00,,,0.04,246,Wunderground v.1.15,2013-09-23 16:00:00,
2013-09-23 12:01:00,51.4,40.8,28.18,WNW,293,2.0,9.0,67,0.00,,,0.04,246,Wunderground v.1.15,2013-09-23 16:01:00,
2013-09-23 12:04:00,51.7,43.7,28.18,North,0,7.0,9.0,74,0.00,,,0.04,861,Wunderground v.1.15,2013-09-23 16:04:00,
2013-09-23 12:06:00,52.2,44.5,28.18,NNE,14,11.0,14.0,75,0.00,,,0.04,853,Wunderground v.1.15,2013-09-23 16:06:00,
2013-09-23 12:07:00,52.5,44.1,28.18,NW,322,1.0,14.0,73,0.00,,,0.04,868,Wunderground v.1.15,2013-09-23 16:07:00,
2013-09-23 12:10:00,53.5,44.7,28.18,NNE,29,4.0,5.0,72,0.00,,,0.04,1025,Wunderground v.1.15,2013-09-23 16:10:00,
2013-09-23 12:11:00,53.6,44.8,28.17,NNE,29,1.0,5.0,72,0.00,,,0.04,1025,Wunderground v.1.15,2013-09-23 16:11:00,
2013-09-23 12:12:00,53.9,43.6,28.17,North,8,4.0,5.0,68,0.00,,,0.04,1025,Wunderground v.1.15,2013-09-23 16:12:00,
2013-09-23 12:15:00,54.4,42.1,28.17,WNW,296,0.0,7.0,63,0.00,,,0.04,345,Wunderground v.1.15,2013-09-23 16:15:00,
2013-09-23 12:16:00,54.5,42.2,28.17,North,1,3.0,7.0,63,0.00,,,0.04,345,Wunderground v.1.15,2013-09-23 16:16:00,
2013-09-23 12:17:00,54.5,43.4,28.17,North,356,1.0,7.0,66,0.00,,,0.04,338,Wunderground v.1.15,2013-09-23 16:17:00,
2013-09-23 12:21:00,54.2,42.3,28.17,NNW,333,2.0,7.0,64,0.00,,,0.04,432,Wunderground v.1.15,2013-09-23 16:21:00,
2013-09-23 12:22:00,54.1,41.8,28.17,West,275,10.0,11.0,63,0.00,,,0.04,411,Wunderground v.1.15,2013-09-23 16:22:00,
2013-09-23 12:26:00,53.5,42.0,28.17,WNW,290,4.0,11.0,65,0.00,,,0.04,330,Wunderground v.1.15,2013-09-23 16:26:00,
2013-09-23 12:27:00,53.2,42.1,28.17,North,354,0.0,11.0,66,0.00,,,0.04,332,Wunderground v.1.15,2013-09-23 16:27:00,
2013-09-23 12:28:00,53.2,42.1,28.17,NW,304,2.0,11.0,66,0.00,,,0.04,332,Wunderground v.1.15,2013-09-23 16:28:00,
2013-09-23 12:31:00,52.8,41.4,28.17,NNW,344,1.0,7.0,65,0.00,,,0.04,352,Wunderground v.1.15,2013-09-23 16:31:00,
2013-09-23 12:33:00,52.8,42.5,28.17,NNW,346,0.0,7.0,68,0.00,,,0.04,352,Wunderground v.1.15,2013-09-23 16:33:00,
2013-09-23 12:36:00,53.3,43.8,28.17,North,6,4.0,9.0,70,0.00,,,0.04,851,Wunderground v.1.15,2013-09-23 16:36:00,
2013-09-23 12:38:00,53.8,43.1,28.17,North,359,3.0,9.0,67,0.00,,,0.04,916,Wunderground v.1.15,2013-09-23 16:38:00,
2013-09-23 12:41:00,54.5,44.2,28.17,NNW,346,10.0,12.0,68,0.00,,,0.04,951,Wunderground v.1.15,2013-09-23 16:41:00,
2013-09-23 12:42:00,54.7,43.6,28.17,North,10,8.0,12.0,66,0.00,,,0.04,951,Wunderground v.1.15,2013-09-23 16:42:00,
2013-09-23 12:43:00,55.0,44.6,28.17,NE,44,10.0,16.0,68,0.00,,,0.04,376,Wunderground v.1.15,2013-09-23 16:43:00,
2013-09-23 12:46:00,55.3,43.7,28.17,NNW,337,2.0,16.0,65,0.00,,,0.04,455,Wunderground v.1.15,2013-09-23 16:46:00,
2013-09-23 12:47:00,55.3,42.9,28.17,WNW,296,2.0,16.0,63,0.00,,,0.04,455,Wunderground v.1.15,2013-09-23 16:47:00,
2013-09-23 12:48:00,55.3,43.3,28.17,North,349,8.0,16.0,64,0.00,,,0.04,455,Wunderground v.1.15,2013-09-23 16:48:00,
2013-09-23 12:49:00,55.3,43.3,28.17,NW,307,6.0,16.0,64,0.00,,,0.04,329,Wunderground v.1.15,2013-09-23 16:49:00,
2013-09-23 12:52:00,55.0,43.0,28.17,NW,314,3.0,9.0,64,0.00,,,0.04,332,Wunderground v.1.15,2013-09-23 16:52:00,
2013-09-23 12:53:00,54.8,42.9,28.17,NW,313,2.0,9.0,64,0.00,,,0.04,341,Wunderground v.1.15,2013-09-23 16:53:00,
2013-09-23 12:54:00,54.5,42.2,28.17,North,1,4.0,9.0,63,0.00,,,0.04,348,Wunderground v.1.15,2013-09-23 16:54:00,
2013-09-23 12:57:00,54.4,44.4,28.17,NW,319,10.0,10.0,69,0.00,,,0.04,935,Wunderground v.1.15,2013-09-23 16:57:00,
2013-09-23 12:58:00,54.4,44.4,28.17,NNW,340,7.0,10.0,69,0.00,,,0.04,930,Wunderground v.1.15,2013-09-23 16:58:00,
2013-09-23 12:59:00,54.7,44.7,28.17,WNW,283,6.0,8.0,69,0.00,,,0.04,937,Wunderground v.1.15,2013-09-23 16:59:00,
2013-09-23 13:02:00,54.8,43.7,28.17,NNE,24,5.0,9.0,66,0.00,,,0.04,937,Wunderground v.1.15,2013-09-23 17:02:00,
2013-09-23 13:03:00,54.8,43.7,28.17,NNE,18,9.0,10.0,66,0.00,,,0.04,499,Wunderground v.1.15,2013-09-23 17:03:00,
2013-09-23 13:04:00,55.0,44.6,28.17,North,3,5.0,10.0,68,0.00,,,0.04,499,Wunderground v.1.15,2013-09-23 17:04:00,
2013-09-23 13:05:00,55.1,45.5,28.17,North,9,2.0,10.0,70,0.00,,,0.04,362,Wunderground v.1.15,2013-09-23 17:05:00,
2013-09-23 13:07:00,55.1,42.7,28.17,NNW,345,4.0,10.0,63,0.00,,,0.04,327,Wunderground v.1.15,2013-09-23 17:07:00,
2013-09-23 13:08:00,55.1,43.5,28.17,NNW,331,4.0,10.0,65,0.00,,,0.04,327,Wunderground v.1.15,2013-09-23 17:08:00,
2013-09-23 13:09:00,55.3,43.7,28.17,NW,322,4.0,10.0,65,0.00,,,0.04,937,Wunderground v.1.15,2013-09-23 17:09:00,
2013-09-23 13:11:00,55.6,44.4,28.17,North,350,4.0,10.0,66,0.00,,,0.04,882,Wunderground v.1.15,2013-09-23 17:11:00,
2013-09-23 13:13:00,56.2,45.0,28.17,NNE,21,7.0,10.0,66,0.00,,,0.04,911,Wunderground v.1.15,2013-09-23 17:13:00,
2013-09-23 13:14:00,56.3,44.3,28.17,NNW,330,5.0,10.0,64,0.00,,,0.04,947,Wunderground v.1.15,2013-09-23 17:14:00,
2013-09-23 13:16:00,56.0,42.7,28.17,ENE,59,5.0,10.0,61,0.00,,,0.04,947,Wunderground v.1.15,2013-09-23 17:16:00,
2013-09-23 13:18:00,55.3,41.2,28.17,North,9,2.0,10.0,59,0.00,,,0.04,383,Wunderground v.1.15,2013-09-23 17:18:00,
2013-09-23 13:19:00,55.1,44.7,28.17,NNE,23,3.0,4.0,68,0.00,,,0.04,327,Wunderground v.1.15,2013-09-23 17:19:00,
2013-09-23 13:21:00,55.0,43.8,28.17,North,1,3.0,7.0,66,0.00,,,0.04,294,Wunderground v.1.15,2013-09-23 17:21:00,
2013-09-23 13:23:00,54.8,43.7,28.17,NW,321,4.0,11.0,66,0.00,,,0.04,265,Wunderground v.1.15,2013-09-23 17:23:00,
2013-09-23 13:24:00,54.8,42.0,28.17,NW,324,5.0,11.0,62,0.00,,,0.04,274,Wunderground v.1.15,2013-09-23 17:24:00,
2013-09-23 13:25:00,54.7,41.9,28.17,NNE,12,6.0,11.0,62,0.00,,,0.04,274,Wunderground v.1.15,2013-09-23 17:25:00,
2013-09-23 13:26:00,54.7,43.2,28.17,North,359,6.0,11.0,65,0.00,,,0.04,916,Wunderground v.1.15,2013-09-23 17:26:00,
2013-09-23 13:28:00,54.7,42.3,28.17,North,1,4.0,11.0,63,0.00,,,0.04,963,Wunderground v.1.15,2013-09-23 17:28:00,
2013-09-23 13:29:00,54.7,40.6,28.17,North,0,3.0,11.0,59,0.00,,,0.04,963,Wunderground v.1.15,2013-09-23 17:29:00,
2013-09-23 13:30:00,54.7,40.6,28.17,WNW,300,2.0,4.0,59,0.00,,,0.04,963,Wunderground v.1.15,2013-09-23 17:30:00,
2013-09-23 13:32:00,54.8,42.0,28.17,NW,313,1.0,7.0,62,0.00,,,0.04,911,Wunderground v.1.15,2013-09-23 17:32:00,
2013-09-23 13:34:00,55.0,43.0,28.17,North,359,6.0,7.0,64,0.00,,,0.04,911,Wunderground v.1.15,2013-09-23 17:34:00,
2013-09-23 13:35:00,55.1,43.1,28.17,NNE,23,3.0,7.0,64,0.00,,,0.04,911,Wunderground v.1.15,2013-09-23 17:35:00,
2013-09-23 13:37:00,55.4,40.9,28.17,North,352,2.0,13.0,58,0.00,,,0.04,779,Wunderground v.1.15,2013-09-23 17:37:00,
2013-09-23 13:38:00,55.4,40.9,28.17,WNW,291,6.0,13.0,58,0.00,,,0.04,548,Wunderground v.1.15,2013-09-23 17:38:00,
2013-09-23 13:39:00,55.4,41.3,28.17,NNW,341,2.0,5.0,59,0.00,,,0.04,548,Wunderground v.1.15,2013-09-23 17:39:00,
2013-09-23 13:40:00,55.3,41.6,28.17,NW,309,7.0,7.0,60,0.00,,,0.04,548,Wunderground v.1.15,2013-09-23 17:40:00,
2013-09-23 13:43:00,55.0,40.9,28.16,NNE,15,6.0,9.0,59,0.00,,,0.04,879,Wunderground v.1.15,2013-09-23 17:43:00,
2013-09-23 13:44:00,55.0,40.9,28.16,NNW,345,3.0,9.0,59,0.00,,,0.04,868,Wunderground v.1.15,2013-09-23 17:44:00,
2013-09-23 13:45:00,55.0,42.2,28.16,NNW,343,6.0,9.0,62,0.00,,,0.04,849,Wunderground v.1.15,2013-09-23 17:45:00,
2013-09-23 13:46:00,55.0,42.2,28.16,NNW,338,8.0,9.0,62,0.00,,,0.04,849,Wunderground v.1.15,2013-09-23 17:46:00,
2013-09-23 13:48:00,55.3,42.5,28.16,WNW,285,3.0,10.0,62,0.00,,,0.04,816,Wunderground v.1.15,2013-09-23 17:48:00,
2013-09-23 13:49:00,55.3,42.5,28.16,North,352,3.0,10.0,62,0.00,,,0.04,812,Wunderground v.1.15,2013-09-23 17:49:00,
2013-09-23 13:50:00,55.6,42.4,28.16,NW,313,3.0,6.0,61,0.00,,,0.04,803,Wunderground v.1.15,2013-09-23 17:50:00,
2013-09-23 13:51:00,55.7,44.1,28.16,NW,313,2.0,6.0,65,0.00,,,0.04,803,Wunderground v.1.15,2013-09-23 17:51:00,
2013-09-23 13:53:00,55.9,42.6,28.16,West,271,6.0,12.0,61,0.00,,,0.04,807,Wunderground v.1.15,2013-09-23 17:53:00,
2013-09-23 13:54:00,55.9,42.6,28.16,NNW,335,4.0,12.0,61,0.00,,,0.04,807,Wunderground v.1.15,2013-09-23 17:54:00,
2013-09-23 13:55:00,55.9,43.1,28.16,NW,323,2.0,12.0,62,0.00,,,0.04,830,Wunderground v.1.15,2013-09-23 17:55:00,
2013-09-23 13:56:00,55.9,42.2,28.16,NNW,344,2.0,12.0,60,0.00,,,0.04,830,Wunderground v.1.15,2013-09-23 17:56:00,
2013-09-23 13:58:00,56.0,42.7,28.16,WNW,293,1.0,12.0,61,0.00,,,0.04,793,Wunderground v.1.15,2013-09-23 17:58:00,
2013-09-23 13:59:00,56.0,43.6,28.16,NE,49,4.0,12.0,63,0.00,,,0.04,756,Wunderground v.1.15,2013-09-23 17:59:00,
2013-09-23 14:00:00,56.2,42.5,28.16,WNW,300,5.0,6.0,60,0.00,,,0.04,821,Wunderground v.1.15,2013-09-23 18:00:00,
2013-09-23 14:01:00,56.2,41.6,28.16,West,270,6.0,10.0,58,0.00,,,0.04,865,Wunderground v.1.15,2013-09-23 18:01:00,
2013-09-23 14:04:00,56.2,43.8,28.16,NNW,346,3.0,10.0,63,0.00,,,0.04,875,Wunderground v.1.15,2013-09-23 18:04:00,
2013-09-23 14:05:00,56.3,43.4,28.16,NNW,335,11.0,13.0,62,0.00,,,0.04,889,Wunderground v.1.15,2013-09-23 18:05:00,
2013-09-23 14:06:00,56.5,43.2,28.16,WNW,293,2.0,13.0,61,0.00,,,0.04,882,Wunderground v.1.15,2013-09-23 18:06:00,
2013-09-23 14:09:00,56.9,42.7,28.16,NW,314,2.0,5.0,59,0.00,,,0.04,830,Wunderground v.1.15,2013-09-23 18:09:00,
2013-09-23 14:11:00,57.0,44.1,28.16,NW,307,12.0,12.0,62,0.00,,,0.04,784,Wunderground v.1.15,2013-09-23 18:11:00,
2013-09-23 14:12:00,57.0,44.1,28.15,WNW,300,3.0,12.0,62,0.00,,,0.04,770,Wunderground v.1.15,2013-09-23 18:12:00,
2013-09-23 14:13:00,57.0,42.4,28.15,NNW,348,2.0,12.0,58,0.00,,,0.04,759,Wunderground v.1.15,2013-09-23 18:13:00,
2013-09-23 14:14:00,57.2,43.9,28.15,WNW,295,3.0,12.0,61,0.00,,,0.04,749,Wunderground v.1.15,2013-09-23 18:14:00,
2013-09-23 14:16:00,57.2,43.4,28.15,NW,316,5.0,12.0,60,0.00,,,0.04,747,Wunderground v.1.15,2013-09-23 18:16:00,
2013-09-23 14:17:00,57.2,43.4,28.15,NW,313,3.0,12.0,60,0.00,,,0.04,747,Wunderground v.1.15,2013-09-23 18:17:00,
2013-09-23 14:18:00,57.2,43.4,28.15,North,359,2.0,12.0,60,0.00,,,0.04,752,Wunderground v.1.15,2013-09-23 18:18:00,
2013-09-23 14:20:00,57.2,43.4,28.15,WNW,290,5.0,6.0,60,0.00,,,0.04,779,Wunderground v.1.15,2013-09-23 18:20:00,
2013-09-23 14:22:00,57.0,41.4,28.15,NW,317,5.0,10.0,56,0.00,,,0.04,789,Wunderground v.1.15,2013-09-23 18:22:00,
2013-09-23 14:23:00,56.9,41.4,28.15,NNW,342,6.0,10.0,56,0.00,,,0.04,819,Wunderground v.1.15,2013-09-23 18:23:00,
2013-09-23 14:25:00,56.9,44.0,28.15,North,2,5.0,10.0,62,0.00,,,0.04,861,Wunderground v.1.15,2013-09-23 18:25:00,
2013-09-23 14:26:00,56.9,44.4,28.15,WNW,294,3.0,10.0,63,0.00,,,0.04,861,Wunderground v.1.15,2013-09-23 18:26:00,
2013-09-23 14:27:00,57.0,41.9,28.15,West,276,5.0,10.0,57,0.00,,,0.04,861,Wunderground v.1.15,2013-09-23 18:27:00,
2013-09-23 14:29:00,57.2,41.6,28.15,NE,34,6.0,11.0,56,0.00,,,0.04,823,Wunderground v.1.15,2013-09-23 18:29:00,
2013-09-23 14:30:00,57.3,41.7,28.15,North,350,5.0,15.0,56,0.00,,,0.04,824,Wunderground v.1.15,2013-09-23 18:30:00,
2013-09-23 14:31:00,57.6,43.8,28.15,North,8,3.0,15.0,60,0.00,,,0.04,802,Wunderground v.1.15,2013-09-23 18:31:00,
2013-09-23 14:32:00,57.8,44.4,28.15,NNW,342,6.0,15.0,61,0.00,,,0.04,775,Wunderground v.1.15,2013-09-23 18:32:00,
2013-09-23 14:34:00,58.1,46.0,28.15,North,1,3.0,15.0,64,0.00,,,0.04,742,Wunderground v.1.15,2013-09-23 18:34:00,
2013-09-23 14:35:00,58.3,44.0,28.15,NNE,14,10.0,15.0,59,0.00,,,0.04,726,Wunderground v.1.15,2013-09-23 18:35:00,
2013-09-23 14:36:00,58.4,44.1,28.15,North,0,3.0,15.0,59,0.00,,,0.04,721,Wunderground v.1.15,2013-09-23 18:36:00,
2013-09-23 14:37:00,58.6,44.3,28.15,North,1,2.0,15.0,59,0.00,,,0.04,717,Wunderground v.1.15,2013-09-23 18:37:00,
2013-09-23 14:38:00,58.7,44.0,28.15,NNE,23,6.0,15.0,58,0.00,,,0.04,717,Wunderground v.1.15,2013-09-23 18:38:00,
2013-09-23 14:39:00,58.7,44.4,28.15,North,8,5.0,15.0,59,0.00,,,0.04,710,Wunderground v.1.15,2013-09-23 18:39:00,
2013-09-23 14:41:00,58.9,43.7,28.15,NNW,336,6.0,13.0,57,0.00,,,0.04,712,Wunderground v.1.15,2013-09-23 18:41:00,
2013-09-23 14:43:00,58.9,42.3,28.15,NNW,340,5.0,13.0,54,0.00,,,0.04,719,Wunderground v.1.15,2013-09-23 18:43:00,
2013-09-23 14:44:00,58.7,41.6,28.15,WNW,300,5.0,13.0,53,0.00,,,0.04,726,Wunderground v.1.15,2013-09-23 18:44:00,
2013-09-23 14:46:00,58.6,41.5,28.15,NNW,328,4.0,13.0,53,0.00,,,0.04,715,Wunderground v.1.15,2013-09-23 18:46:00,
2013-09-23 14:48:00,58.6,42.9,28.15,North,6,6.0,13.0,56,0.00,,,0.04,696,Wunderground v.1.15,2013-09-23 18:48:00,
2013-09-23 14:50:00,58.6,44.3,28.15,NNW,345,5.0,7.0,59,0.00,,,0.04,694,Wunderground v.1.15,2013-09-23 18:50:00,
2013-09-23 14:52:00,58.6,42.5,28.15,North,355,3.0,12.0,55,0.00,,,0.04,687,Wunderground v.1.15,2013-09-23 18:52:00,
2013-09-23 14:53:00,58.4,42.8,28.15,North,359,1.0,12.0,56,0.00,,,0.04,687,Wunderground v.1.15,2013-09-23 18:53:00,
2013-09-23 14:55:00,58.4,43.7,28.15,NNW,341,6.0,12.0,58,0.00,,,0.04,684,Wunderground v.1.15,2013-09-23 18:55:00,
2013-09-23 14:57:00,58.4,43.7,28.15,North,359,6.0,12.0,58,0.00,,,0.04,682,Wunderground v.1.15,2013-09-23 18:57:00,
2013-09-23 14:58:00,58.6,43.4,28.15,North,353,4.0,12.0,57,0.00,,,0.04,687,Wunderground v.1.15,2013-09-23 18:58:00,
2013-09-23 14:59:00,58.6,42.9,28.15,NNW,340,5.0,12.0,56,0.00,,,0.04,687,Wunderground v.1.15,2013-09-23 18:59:00,
2013-09-23 15:00:00,58.6,43.9,28.15,NNW,333,3.0,5.0,58,0.00,,,0.04,693,Wunderground v.1.15,2013-09-23 19:00:00,
2013-09-23 15:02:00,58.6,44.3,28.15,NW,321,2.0,10.0,59,0.00,,,0.04,694,Wunderground v.1.15,2013-09-23 19:02:00,
2013-09-23 15:03:00,58.4,42.3,28.15,North,352,5.0,10.0,55,0.00,,,0.04,694,Wunderground v.1.15,2013-09-23 19:03:00,
2013-09-23 15:04:00,58.4,41.8,28.15,NNW,333,3.0,10.0,54,0.00,,,0.04,691,Wunderground v.1.15,2013-09-23 19:04:00,
2013-09-23 15:05:00,58.4,41.8,28.15,NNW,343,2.0,10.0,54,0.00,,,0.04,691,Wunderground v.1.15,2013-09-23 19:05:00,
2013-09-23 15:07:00,58.4,43.2,28.15,NNE,29,4.0,11.0,57,0.00,,,0.04,673,Wunderground v.1.15,2013-09-23 19:07:00,
2013-09-23 15:08:00,58.3,43.6,28.15,North,349,3.0,11.0,58,0.00,,,0.04,664,Wunderground v.1.15,2013-09-23 19:08:00,
2013-09-23 15:09:00,58.3,43.6,28.15,NNW,345,3.0,11.0,58,0.00,,,0.04,657,Wunderground v.1.15,2013-09-23 19:09:00,
2013-09-23 15:10:00,58.3,41.7,28.15,West,275,4.0,7.0,54,0.00,,,0.04,657,Wunderground v.1.15,2013-09-23 19:10:00,
2013-09-23 15:12:00,57.6,41.5,28.15,West,264,2.0,7.0,55,0.00,,,0.00,645,Wunderground v.1.15,2013-09-23 19:12:00,
2013-09-23 15:13:00,57.6,41.5,28.15,West,265,4.0,7.0,55,0.00,,,0.00,645,Wunderground v.1.15,2013-09-23 19:13:00,
2013-09-23 15:14:00,57.5,43.3,28.15,NNW,345,4.0,7.0,59,0.00,,,0.00,642,Wunderground v.1.15,2013-09-23 19:14:00,
2013-09-23 15:15:00,57.5,43.3,28.15,North,359,8.0,8.0,59,0.00,,,0.00,638,Wunderground v.1.15,2013-09-23 19:15:00,
2013-09-23 15:18:00,57.5,42.4,28.15,North,352,3.0,9.0,57,0.00,,,0.00,635,Wunderground v.1.15,2013-09-23 19:18:00,
2013-09-23 15:20:00,57.6,41.1,28.15,West,262,3.0,4.0,54,0.00,,,0.00,629,Wunderground v.1.15,2013-09-23 19:20:00,
2013-09-23 15:23:00,57.8,43.1,28.15,NNW,339,4.0,6.0,58,0.00,,,0.00,622,Wunderground v.1.15,2013-09-23 19:23:00,
2013-09-23 15:25:00,58.0,41.4,28.15,NW,309,2.0,6.0,54,0.00,,,0.00,619,Wunderground v.1.15,2013-09-23 19:25:00,
2013-09-23 15:28:00,58.1,41.5,28.14,SW,226,4.0,7.0,54,0.00,,,0.00,612,Wunderground v.1.15,2013-09-23 19:28:00,
2013-09-23 15:30:00,58.0,42.4,28.14,WNW,289,2.0,3.0,56,0.00,,,0.00,610,Wunderground v.1.15,2013-09-23 19:30:00,
2013-09-23 15:31:00,58.0,41.4,28.14,West,281,9.0,9.0,54,0.00,,,0.00,606,Wunderground v.1.15,2013-09-23 19:31:00,
2013-09-23 15:33:00,57.8,43.1,28.14,North,6,3.0,10.0,58,0.00,,,0.00,599,Wunderground v.1.15,2013-09-23 19:33:00,
2013-09-23 15:34:00,57.8,43.1,28.14,North,6,2.0,10.0,58,0.00,,,0.00,596,Wunderground v.1.15,2013-09-23 19:34:00,
2013-09-23 15:35:00,57.8,43.1,28.14,North,8,11.0,11.0,58,0.00,,,0.00,596,Wunderground v.1.15,2013-09-23 19:35:00,
2013-09-23 15:36:00,57.8,43.6,28.14,NNW,329,7.0,11.0,59,0.00,,,0.00,594,Wunderground v.1.15,2013-09-23 19:36:00,
2013-09-23 15:39:00,57.8,41.3,28.14,NNE,27,4.0,13.0,54,0.00,,,0.00,585,Wunderground v.1.15,2013-09-23 19:39:00,
2013-09-23 15:40:00,57.8,43.6,28.14,NNW,328,4.0,5.0,59,0.00,,,0.00,584,Wunderground v.1.15,2013-09-23 19:40:00,
2013-09-23 15:41:00,57.8,42.7,28.14,North,352,1.0,10.0,57,0.00,,,0.00,582,Wunderground v.1.15,2013-09-23 19:41:00,
2013-09-23 15:44:00,58.0,41.9,28.14,NNW,347,4.0,10.0,55,0.00,,,0.00,573,Wunderground v.1.15,2013-09-23 19:44:00,
2013-09-23 15:46:00,58.0,41.9,28.14,NW,319,2.0,11.0,55,0.00,,,0.00,570,Wunderground v.1.15,2013-09-23 19:46:00,
2013-09-23 15:49:00,58.0,41.9,28.14,North,0,2.0,11.0,55,0.00,,,0.00,564,Wunderground v.1.15,2013-09-23 19:49:00,
2013-09-23 15:50:00,58.0,42.8,28.14,North,0,3.0,5.0,57,0.00,,,0.00,559,Wunderground v.1.15,2013-09-23 19:50:00,
2013-09-23 15:51:00,58.0,42.8,28.14,North,6,6.0,10.0,57,0.00,,,0.00,557,Wunderground v.1.15,2013-09-23 19:51:00,
2013-09-23 15:55:00,58.1,41.5,28.14,North,359,3.0,10.0,54,0.00,,,0.00,547,Wunderground v.1.15,2013-09-23 19:55:00,
2013-09-23 15:56:00,58.1,41.5,28.14,North,359,3.0,10.0,54,0.00,,,0.00,541,Wunderground v.1.15,2013-09-23 19:56:00,
2013-09-23 15:57:00,58.1,41.5,28.14,NW,314,8.0,10.0,54,0.00,,,0.00,538,Wunderground v.1.15,2013-09-23 19:57:00,
2013-09-23 16:00:00,58.0,41.9,28.14,NNW,330,3.0,4.0,55,0.00,,,0.00,534,Wunderground v.1.15,2013-09-23 20:00:00,
2013-09-23 16:01:00,58.0,41.0,28.14,NW,305,3.0,10.0,53,0.00,,,0.00,529,Wunderground v.1.15,2013-09-23 20:01:00,
2013-09-23 16:02:00,58.0,41.0,28.14,WNW,295,7.0,10.0,53,0.00,,,0.00,527,Wunderground v.1.15,2013-09-23 20:02:00,
2013-09-23 16:05:00,57.8,41.3,28.14,NNW,333,5.0,10.0,54,0.00,,,0.00,519,Wunderground v.1.15,2013-09-23 20:05:00,
2013-09-23 16:07:00,57.6,41.5,28.14,North,359,10.0,11.0,55,0.00,,,0.00,513,Wunderground v.1.15,2013-09-23 20:07:00,
2013-09-23 16:10:00,57.6,41.1,28.14,North,1,3.0,5.0,54,0.00,,,0.00,506,Wunderground v.1.15,2013-09-23 20:10:00,
2013-09-23 16:11:00,57.6,40.6,28.14,West,281,2.0,7.0,53,0.00,,,0.00,501,Wunderground v.1.15,2013-09-23 20:11:00,
2013-09-23 16:12:00,57.8,40.3,28.14,West,276,3.0,7.0,52,0.00,,,0.00,499,Wunderground v.1.15,2013-09-23 20:12:00,
2013-09-23 16:13:00,57.8,39.8,28.14,WNW,295,3.0,7.0,51,0.00,,,0.00,499,Wunderground v.1.15,2013-09-23 20:13:00,
2013-09-23 16:15:00,58.0,40.5,28.14,North,355,3.0,7.0,52,0.00,,,0.00,494,Wunderground v.1.15,2013-09-23 20:15:00,
2013-09-23 16:17:00,58.0,40.5,28.14,WNW,295,4.0,7.0,52,0.00,,,0.00,487,Wunderground v.1.15,2013-09-23 20:17:00,
2013-09-23 16:18:00,58.0,38.9,28.14,West,281,1.0,10.0,49,0.00,,,0.00,487,Wunderground v.1.15,2013-09-23 20:18:00,
2013-09-23 16:20:00,57.8,39.3,28.14,WNW,284,0.0,5.0,50,0.00,,,0.00,478,Wunderground v.1.15,2013-09-23 20:20:00,
2013-09-23 16:22:00,57.6,39.1,28.14,WNW,302,4.0,14.0,50,0.00,,,0.00,475,Wunderground v.1.15,2013-09-23 20:22:00,
2013-09-23 16:23:00,57.6,39.1,28.14,NNW,328,6.0,14.0,50,0.00,,,0.00,471,Wunderground v.1.15,2013-09-23 20:23:00,
2013-09-23 16:25:00,57.5,41.9,28.14,West,274,10.0,14.0,56,0.00,,,0.00,462,Wunderground v.1.15,2013-09-23 20:25:00,
2013-09-23 16:28:00,57.0,40.0,28.14,North,359,3.0,14.0,53,0.00,,,0.00,455,Wunderground v.1.15,2013-09-23 20:28:00,
2013-09-23 16:29:00,56.9,40.4,28.14,NW,324,5.0,14.0,54,0.00,,,0.00,454,Wunderground v.1.15,2013-09-23 20:29:00,
2013-09-23 16:30:00,56.9,40.9,28.14,NNW,337,2.0,5.0,55,0.00,,,0.00,448,Wunderground v.1.15,2013-09-23 20:30:00,
2013-09-23 16:33:00,56.9,41.4,28.14,WNW,286,0.0,5.0,56,0.00,,,0.00,441,Wunderground v.1.15,2013-09-23 20:33:00,
2013-09-23 16:34:00,56.9,40.4,28.14,WNW,286,0.0,5.0,54,0.00,,,0.00,438,Wunderground v.1.15,2013-09-23 20:34:00,
2013-09-23 16:35:00,56.9,40.9,28.14,North,8,4.0,5.0,55,0.00,,,0.00,432,Wunderground v.1.15,2013-09-23 20:35:00,
2013-09-23 16:37:00,57.0,40.5,28.14,NNW,338,5.0,7.0,54,0.00,,,0.00,429,Wunderground v.1.15,2013-09-23 20:37:00,
2013-09-23 16:38:00,57.0,40.5,28.14,WNW,289,9.0,9.0,54,0.00,,,0.00,425,Wunderground v.1.15,2013-09-23 20:38:00,
2013-09-23 16:39:00,57.0,40.5,28.14,WNW,283,10.0,10.0,54,0.00,,,0.00,424,Wunderground v.1.15,2013-09-23 20:39:00,
2013-09-23 16:41:00,57.0,40.5,28.14,NNW,338,6.0,9.0,54,0.00,,,0.00,415,Wunderground v.1.15,2013-09-23 20:41:00,
2013-09-23 16:42:00,57.0,40.0,28.14,North,0,3.0,9.0,53,0.00,,,0.00,413,Wunderground v.1.15,2013-09-23 20:42:00,
2013-09-23 16:43:00,57.0,40.0,28.14,NW,323,4.0,9.0,53,0.00,,,0.00,411,Wunderground v.1.15,2013-09-23 20:43:00,
2013-09-23 16:44:00,57.0,40.5,28.14,North,356,5.0,9.0,54,0.00,,,0.00,408,Wunderground v.1.15,2013-09-23 20:44:00,
2013-09-23 16:46:00,57.0,40.0,28.14,West,281,3.0,10.0,53,0.00,,,0.00,403,Wunderground v.1.15,2013-09-23 20:46:00,
2013-09-23 16:47:00,57.0,39.5,28.14,West,281,4.0,10.0,52,0.00,,,0.00,399,Wunderground v.1.15,2013-09-23 20:47:00,
2013-09-23 16:48:00,56.9,40.4,28.14,West,281,0.0,10.0,54,0.00,,,0.00,397,Wunderground v.1.15,2013-09-23 20:48:00,
2013-09-23 16:49:00,56.9,40.4,28.14,North,359,3.0,10.0,54,0.00,,,0.00,392,Wunderground v.1.15,2013-09-23 20:49:00,
2013-09-23 16:51:00,56.9,40.4,28.14,NNE,14,5.0,9.0,54,0.00,,,0.00,383,Wunderground v.1.15,2013-09-23 20:51:00,
2013-09-23 16:52:00,56.7,40.2,28.14,North,1,5.0,9.0,54,0.00,,,0.00,383,Wunderground v.1.15,2013-09-23 20:52:00,
2013-09-23 16:53:00,56.7,40.2,28.14,NNW,335,2.0,9.0,54,0.00,,,0.00,381,Wunderground v.1.15,2013-09-23 20:53:00,
2013-09-23 16:54:00,56.6,40.1,28.14,North,0,4.0,11.0,54,0.00,,,0.00,376,Wunderground v.1.15,2013-09-23 20:54:00,
2013-09-23 16:57:00,56.5,41.0,28.15,NNW,347,2.0,11.0,56,0.00,,,0.00,367,Wunderground v.1.15,2013-09-23 20:57:00,
2013-09-23 16:58:00,56.5,40.0,28.15,North,1,4.0,11.0,54,0.00,,,0.00,366,Wunderground v.1.15,2013-09-23 20:58:00,
2013-09-23 16:59:00,56.6,39.7,28.15,NW,305,0.0,11.0,53,0.00,,,0.00,360,Wunderground v.1.15,2013-09-23 20:59:00,
2013-09-23 17:00:00,56.6,39.7,28.15,North,359,5.0,6.0,53,0.00,,,0.00,357,Wunderground v.1.15,2013-09-23 21:00:00,
2013-09-23 17:02:00,56.6,40.1,28.15,NNW,347,3.0,9.0,54,0.00,,,0.00,352,Wunderground v.1.15,2013-09-23 21:02:00,
2013-09-23 17:03:00,56.6,39.7,28.15,North,351,0.0,9.0,53,0.00,,,0.00,348,Wunderground v.1.15,2013-09-23 21:03:00,
2013-09-23 17:04:00,56.6,39.7,28.15,North,359,9.0,10.0,53,0.00,,,0.00,343,Wunderground v.1.15,2013-09-23 21:04:00,
2013-09-23 17:05:00,56.6,40.1,28.15,North,352,3.0,10.0,54,0.00,,,0.00,339,Wunderground v.1.15,2013-09-23 21:05:00,
2013-09-23 17:07:00,56.6,40.1,28.15,North,357,3.0,10.0,54,0.00,,,0.00,336,Wunderground v.1.15,2013-09-23 21:07:00,
2013-09-23 17:08:00,56.6,40.1,28.15,North,359,6.0,10.0,54,0.00,,,0.00,332,Wunderground v.1.15,2013-09-23 21:08:00,
2013-09-23 17:09:00,56.5,39.6,28.15,North,1,5.0,10.0,53,0.00,,,0.00,330,Wunderground v.1.15,2013-09-23 21:09:00,
2013-09-23 17:10:00,56.3,39.9,28.15,North,359,3.0,5.0,54,0.00,,,0.00,325,Wunderground v.1.15,2013-09-23 21:10:00,
2013-09-23 17:12:00,56.2,39.8,28.15,NE,38,0.0,5.0,54,0.00,,,0.00,320,Wunderground v.1.15,2013-09-23 21:12:00,
2013-09-23 17:13:00,56.2,39.8,28.15,NNW,340,1.0,5.0,54,0.00,,,0.00,297,Wunderground v.1.15,2013-09-23 21:13:00,
2013-09-23 17:14:00,56.2,39.8,28.15,NNW,335,4.0,5.0,54,0.00,,,0.00,297,Wunderground v.1.15,2013-09-23 21:14:00,
2013-09-23 17:15:00,56.2,39.8,28.15,NNW,332,2.0,8.0,54,0.00,,,0.00,123,Wunderground v.1.15,2013-09-23 21:15:00,
2013-09-23 17:18:00,56.3,40.3,28.15,NNW,337,2.0,8.0,55,0.00,,,0.00,158,Wunderground v.1.15,2013-09-23 21:18:00,
2013-09-23 17:19:00,56.2,39.8,28.15,NW,319,6.0,12.0,54,0.00,,,0.00,114,Wunderground v.1.15,2013-09-23 21:19:00,
2013-09-23 17:20:00,56.0,40.5,28.15,North,1,7.0,9.0,56,0.00,,,0.00,118,Wunderground v.1.15,2013-09-23 21:20:00,
2013-09-23 17:23:00,55.6,40.6,28.15,North,359,2.0,9.0,57,0.00,,,0.00,51,Wunderground v.1.15,2013-09-23 21:23:00,
2013-09-23 17:24:00,55.4,40.4,28.15,NNW,336,3.0,9.0,57,0.00,,,0.00,35,Wunderground v.1.15,2013-09-23 21:24:00,
2013-09-23 17:25:00,55.4,40.4,28.15,NNW,335,2.0,9.0,57,0.00,,,0.00,25,Wunderground v.1.15,2013-09-23 21:25:00,
2013-09-23 17:28:00,55.0,40.0,28.16,NW,321,3.0,9.0,57,0.00,,,0.00,25,Wunderground v.1.15,2013-09-23 21:28:00,
2013-09-23 17:29:00,54.8,40.3,28.16,NNW,346,5.0,5.0,58,0.00,,,0.00,25,Wunderground v.1.15,2013-09-23 21:29:00,
2013-09-23 17:30:00,54.8,40.3,28.16,North,349,4.0,5.0,58,0.00,,,0.00,25,Wunderground v.1.15,2013-09-23 21:30:00,
2013-09-23 17:31:00,54.7,40.2,28.16,North,349,2.0,5.0,58,0.00,,,0.00,25,Wunderground v.1.15,2013-09-23 21:31:00,
2013-09-23 17:33:00,54.4,40.4,28.16,North,359,6.0,6.0,59,0.00,,,0.00,25,Wunderground v.1.15,2013-09-23 21:33:00,
2013-09-23 17:35:00,54.1,40.5,28.16,NNE,13,7.0,11.0,60,0.00,,,0.00,25,Wunderground v.1.15,2013-09-23 21:35:00,
2013-09-23 17:36:00,53.9,40.3,28.16,North,11,5.0,11.0,60,0.00,,,0.00,23,Wunderground v.1.15,2013-09-23 21:36:00,
2013-09-23 17:39:00,53.6,40.9,28.16,NNW,347,0.0,11.0,62,0.00,,,0.00,25,Wunderground v.1.15,2013-09-23 21:39:00,
2013-09-23 17:40:00,53.5,40.8,28.16,NNW,346,3.0,3.0,62,0.00,,,0.00,23,Wunderground v.1.15,2013-09-23 21:40:00,
2013-09-23 17:41:00,53.5,40.8,28.16,NNW,346,0.0,3.0,62,0.00,,,0.00,23,Wunderground v.1.15,2013-09-23 21:41:00,
2013-09-23 17:44:00,53.3,40.6,28.16,NNW,346,0.0,4.0,62,0.00,,,0.00,23,Wunderground v.1.15,2013-09-23 21:44:00,
2013-09-23 17:46:00,53.2,40.5,28.16,NNW,347,2.0,4.0,62,0.00,,,0.00,23,Wunderground v.1.15,2013-09-23 21:46:00,
2013-09-23 17:49:00,52.9,40.6,28.16,NNW,333,0.0,6.0,63,0.00,,,0.00,23,Wunderground v.1.15,2013-09-23 21:49:00,
2013-09-23 17:51:00,52.8,40.5,28.16,NNW,333,0.0,2.0,63,0.00,,,0.00,30,Wunderground v.1.15,2013-09-23 21:51:00,
2013-09-23 17:52:00,52.8,40.5,28.16,NNE,25,0.0,3.0,63,0.00,,,0.00,30,Wunderground v.1.15,2013-09-23 21:52:00,
2013-09-23 17:53:00,52.8,40.5,28.16,North,357,2.0,4.0,63,0.00,,,0.00,25,Wunderground v.1.15,2013-09-23 21:53:00,
2013-09-23 17:54:00,52.6,40.4,28.16,North,357,0.0,4.0,63,0.00,,,0.00,21,Wunderground v.1.15,2013-09-23 21:54:00,
2013-09-23 17:56:00,52.6,40.8,28.16,North,357,4.0,4.0,64,0.00,,,0.00,21,Wunderground v.1.15,2013-09-23 21:56:00,
2013-09-23 17:58:00,52.5,41.5,28.16,North,357,0.0,4.0,66,0.00,,,0.00,21,Wunderground v.1.15,2013-09-23 21:58:00,
2013-09-23 17:59:00,52.5,41.5,28.16,North,357,0.0,4.0,66,0.00,,,0.00,21,Wunderground v.1.15,2013-09-23 21:59:00,
2013-09-23 18:01:00,52.3,40.9,28.16,North,357,0.0,3.0,65,0.00,,,0.00,21,Wunderground v.1.15,2013-09-23 22:01:00,
2013-09-23 18:02:00,52.3,40.9,28.16,North,357,0.0,3.0,65,0.00,,,0.00,21,Wunderground v.1.15,2013-09-23 22:02:00,
2013-09-23 18:03:00,52.2,41.6,28.16,North,357,0.0,3.0,67,0.00,,,0.00,19,Wunderground v.1.15,2013-09-23 22:03:00,
2013-09-23 18:04:00,52.2,42.0,28.16,North,357,2.0,3.0,68,0.00,,,0.00,19,Wunderground v.1.15,2013-09-23 22:04:00,
2013-09-23 18:07:00,52.0,41.8,28.16,North,357,0.0,3.0,68,0.00,,,0.00,19,Wunderground v.1.15,2013-09-23 22:07:00,
2013-09-23 18:09:00,51.9,42.4,28.16,North,357,0.0,3.0,70,0.00,,,0.00,19,Wunderground v.1.15,2013-09-23 22:09:00,
2013-09-23 18:12:00,51.6,41.4,28.17,North,357,0.0,2.0,68,0.00,,,0.00,19,Wunderground v.1.15,2013-09-23 22:12:00,
2013-09-23 18:13:00,51.6,41.4,28.17,North,357,0.0,2.0,68,0.00,,,0.00,19,Wunderground v.1.15,2013-09-23 22:13:00,
2013-09-23 18:14:00,51.4,41.2,28.17,North,357,0.0,2.0,68,0.00,,,0.00,19,Wunderground v.1.15,2013-09-23 22:14:00,
2013-09-23 18:17:00,51.3,42.6,28.17,North,357,1.0,2.0,72,0.00,,,0.00,18,Wunderground v.1.15,2013-09-23 22:17:00,
2013-09-23 18:18:00,51.1,42.4,28.17,North,357,0.0,2.0,72,0.00,,,0.00,18,Wunderground v.1.15,2013-09-23 22:18:00,
2013-09-23 18:19:00,51.1,42.4,28.17,North,357,0.0,2.0,72,0.00,,,0.00,18,Wunderground v.1.15,2013-09-23 22:19:00,
2013-09-23 18:22:00,50.8,42.5,28.17,North,357,3.0,3.0,73,0.00,,,0.00,18,Wunderground v.1.15,2013-09-23 22:22:00,
2013-09-23 18:24:00,50.7,42.7,28.17,North,357,0.0,3.0,74,0.00,,,0.00,16,Wunderground v.1.15,2013-09-23 22:24:00,
2013-09-23 18:25:00,50.5,42.5,28.17,North,357,0.0,3.0,74,0.00,,,0.00,16,Wunderground v.1.15,2013-09-23 22:25:00,
2013-09-23 18:27:00,50.4,42.8,28.17,North,357,0.0,3.0,75,0.00,,,0.00,16,Wunderground v.1.15,2013-09-23 22:27:00,
2013-09-23 18:29:00,50.1,42.8,28.17,North,357,0.0,0.0,76,0.00,,,0.00,16,Wunderground v.1.15,2013-09-23 22:29:00,
2013-09-23 18:30:00,49.9,42.6,28.17,North,357,0.0,0.0,76,0.00,,,0.00,16,Wunderground v.1.15,2013-09-23 22:30:00,
2013-09-23 18:32:00,49.8,42.9,28.17,North,357,0.0,0.0,77,0.00,,,0.00,16,Wunderground v.1.15,2013-09-23 22:32:00,
2013-09-23 18:35:00,49.5,42.6,28.17,North,357,0.0,1.0,77,0.00,,,0.00,14,Wunderground v.1.15,2013-09-23 22:35:00,
2013-09-23 18:36:00,49.4,42.8,28.17,North,357,0.0,1.0,78,0.00,,,0.00,14,Wunderground v.1.15,2013-09-23 22:36:00,
2013-09-23 18:38:00,49.2,42.6,28.17,North,357,0.0,1.0,78,0.00,,,0.00,14,Wunderground v.1.15,2013-09-23 22:38:00,
2013-09-23 18:40:00,49.1,42.9,28.17,North,357,0.0,0.0,79,0.00,,,0.00,12,Wunderground v.1.15,2013-09-23 22:40:00,
2013-09-23 18:41:00,48.9,42.7,28.17,North,357,0.0,0.0,79,0.00,,,0.00,12,Wunderground v.1.15,2013-09-23 22:41:00,
2013-09-23 18:43:00,48.8,42.6,28.17,North,357,0.0,2.0,79,0.00,,,0.00,12,Wunderground v.1.15,2013-09-23 22:43:00,
2013-09-23 18:45:00,48.6,42.4,28.17,North,357,0.0,2.0,79,0.00,,,0.00,12,Wunderground v.1.15,2013-09-23 22:45:00,
2013-09-23 18:46:00,48.6,42.4,28.17,North,357,0.0,2.0,79,0.00,,,0.00,11,Wunderground v.1.15,2013-09-23 22:46:00,
2013-09-23 18:48:00,48.3,42.4,28.17,North,357,1.0,2.0,80,0.00,,,0.00,11,Wunderground v.1.15,2013-09-23 22:48:00,
2013-09-23 18:50:00,48.3,42.4,28.17,North,357,3.0,3.0,80,0.00,,,0.00,11,Wunderground v.1.15,2013-09-23 22:50:00,
2013-09-23 18:52:00,48.2,42.3,28.17,North,357,0.0,3.0,80,0.00,,,0.00,9,Wunderground v.1.15,2013-09-23 22:52:00,
2013-09-23 18:53:00,48.0,42.4,28.17,North,357,0.0,3.0,81,0.00,,,0.00,9,Wunderground v.1.15,2013-09-23 22:53:00,
2013-09-23 18:55:00,47.9,42.7,28.17,North,357,2.0,3.0,82,0.00,,,0.00,9,Wunderground v.1.15,2013-09-23 22:55:00,
2013-09-23 18:56:00,47.9,42.7,28.18,North,357,1.0,3.0,82,0.00,,,0.00,9,Wunderground v.1.15,2013-09-23 22:56:00,
2013-09-23 18:57:00,47.9,42.7,28.18,North,357,1.0,3.0,82,0.00,,,0.00,7,Wunderground v.1.15,2013-09-23 22:57:00,
2013-09-23 18:59:00,47.7,42.5,28.18,North,357,0.0,3.0,82,0.00,,,0.00,7,Wunderground v.1.15,2013-09-23 22:59:00,
2013-09-23 19:00:00,47.6,42.4,28.18,North,357,0.0,2.0,82,0.00,,,0.00,7,Wunderground v.1.15,2013-09-23 23:00:00,
2013-09-23 19:01:00,47.6,42.4,28.18,North,357,0.0,2.0,82,0.00,,,0.00,7,Wunderground v.1.15,2013-09-23 23:01:00,
2013-09-23 19:02:00,47.6,42.7,28.18,North,357,0.0,2.0,83,0.00,,,0.00,5,Wunderground v.1.15,2013-09-23 23:02:00,
2013-09-23 19:04:00,47.4,42.5,28.18,North,357,0.0,2.0,83,0.00,,,0.00,5,Wunderground v.1.15,2013-09-23 23:04:00,
2013-09-23 19:06:00,47.3,42.4,28.18,North,357,0.0,2.0,83,0.00,,,0.00,5,Wunderground v.1.15,2013-09-23 23:06:00,
2013-09-23 19:08:00,47.3,42.7,28.18,North,357,2.0,2.0,84,0.00,,,0.00,0,Wunderground v.1.15,2013-09-23 23:08:00,
2013-09-23 19:09:00,47.1,42.5,28.18,North,357,0.0,2.0,84,0.00,,,0.00,0,Wunderground v.1.15,2013-09-23 23:09:00,
2013-09-23 19:11:00,47.0,42.4,28.18,North,357,0.0,0.0,84,0.00,,,0.00,0,Wunderground v.1.15,2013-09-23 23:11:00,
2013-09-23 19:12:00,47.0,42.1,28.18,North,357,1.0,1.0,83,0.00,,,0.00,0,Wunderground v.1.15,2013-09-23 23:12:00,
2013-09-23 19:13:00,46.8,42.2,28.18,North,357,0.0,2.0,84,0.00,,,0.00,0,Wunderground v.1.15,2013-09-23 23:13:00,
2013-09-23 19:14:00,46.8,42.2,28.18,North,357,0.0,2.0,84,0.00,,,0.00,0,Wunderground v.1.15,2013-09-23 23:14:00,
2013-09-23 19:16:00,46.7,42.1,28.18,North,357,2.0,2.0,84,0.00,,,0.00,0,Wunderground v.1.15,2013-09-23 23:16:00,
2013-09-23 19:17:00,46.7,42.1,28.18,North,357,2.0,2.0,84,0.00,,,0.00,0,Wunderground v.1.15,2013-09-23 23:17:00,
2013-09-23 19:18:00,46.5,41.9,28.18,North,357,2.0,3.0,84,0.00,,,0.00,0,Wunderground v.1.15,2013-09-23 23:18:00,
2013-09-23 19:19:00,46.4,41.8,28.18,North,357,2.0,3.0,84,0.00,,,0.00,0,Wunderground v.1.15,2013-09-23 23:19:00,
2013-09-23 19:21:00,46.4,41.8,28.18,North,357,1.0,2.0,84,0.00,,,0.00,0,Wunderground v.1.15,2013-09-23 23:21:00,
2013-09-23 19:22:00,46.2,41.9,28.18,North,357,2.0,2.0,85,0.00,,,0.00,0,Wunderground v.1.15,2013-09-23 23:22:00,
2013-09-23 19:23:00,46.2,41.9,28.18,North,357,0.0,2.0,85,0.00,,,0.00,0,Wunderground v.1.15,2013-09-23 23:23:00,
2013-09-23 19:24:00,46.2,41.9,28.18,North,357,0.0,2.0,85,0.00,,,0.00,0,Wunderground v.1.15,2013-09-23 23:24:00,
2013-09-23 19:27:00,46.1,41.8,28.18,North,357,2.0,2.0,85,0.00,,,0.00,0,Wunderground v.1.15,2013-09-23 23:27:00,
2013-09-23 19:28:00,46.0,41.7,28.18,North,357,0.0,2.0,85,0.00,,,0.00,0,Wunderground v.1.15,2013-09-23 23:28:00,
2013-09-23 19:29:00,46.0,41.7,28.18,North,357,0.0,2.0,85,0.00,,,0.00,0,Wunderground v.1.15,2013-09-23 23:29:00,
2013-09-23 19:32:00,45.8,41.9,28.18,North,357,0.0,1.0,86,0.00,,,0.00,0,Wunderground v.1.15,2013-09-23 23:32:00,
2013-09-23 19:33:00,45.8,41.9,28.18,North,357,1.0,1.0,86,0.00,,,0.00,0,Wunderground v.1.15,2013-09-23 23:33:00,
2013-09-23 19:34:00,45.7,41.8,28.18,North,357,1.0,2.0,86,0.00,,,0.00,0,Wunderground v.1.15,2013-09-23 23:34:00,
2013-09-23 19:35:00,45.7,41.8,28.18,North,357,1.0,2.0,86,0.00,,,0.00,0,Wunderground v.1.15,2013-09-23 23:35:00,
2013-09-23 19:37:00,45.5,41.9,28.18,North,357,0.0,2.0,87,0.00,,,0.00,0,Wunderground v.1.15,2013-09-23 23:37:00,
2013-09-23 19:38:00,45.5,41.9,28.18,North,357,0.0,2.0,87,0.00,,,0.00,0,Wunderground v.1.15,2013-09-23 23:38:00,
2013-09-23 19:40:00,45.5,41.9,28.18,North,357,0.0,0.0,87,0.00,,,0.00,0,Wunderground v.1.15,2013-09-23 23:40:00,
2013-09-23 19:43:00,45.4,41.8,28.18,North,357,2.0,2.0,87,0.00,,,0.00,0,Wunderground v.1.15,2013-09-23 23:43:00,
2013-09-23 19:44:00,45.2,41.6,28.18,North,357,1.0,2.0,87,0.00,,,0.00,0,Wunderground v.1.15,2013-09-23 23:44:00,
2013-09-23 19:45:00,45.2,41.6,28.18,North,357,0.0,2.0,87,0.00,,,0.00,0,Wunderground v.1.15,2013-09-23 23:45:00,
2013-09-23 19:46:00,45.2,41.9,28.18,North,357,1.0,2.0,88,0.00,,,0.00,0,Wunderground v.1.15,2013-09-23 23:46:00,
2013-09-23 19:48:00,45.1,41.8,28.18,North,357,0.0,2.0,88,0.00,,,0.00,0,Wunderground v.1.15,2013-09-23 23:48:00,
2013-09-23 19:49:00,45.1,41.8,28.18,North,357,2.0,2.0,88,0.00,,,0.00,0,Wunderground v.1.15,2013-09-23 23:49:00,
2013-09-23 19:50:00,45.1,41.8,28.18,North,357,2.0,2.0,88,0.00,,,0.00,0,Wunderground v.1.15,2013-09-23 23:50:00,
2013-09-23 19:51:00,44.9,41.6,28.18,North,357,2.0,2.0,88,0.00,,,0.00,0,Wunderground v.1.15,2013-09-23 23:51:00,
2013-09-23 19:53:00,44.9,41.6,28.18,North,357,0.0,2.0,88,0.00,,,0.00,0,Wunderground v.1.15,2013-09-23 23:53:00,
2013-09-23 19:54:00,44.9,41.6,28.18,North,357,0.0,2.0,88,0.00,,,0.00,0,Wunderground v.1.15,2013-09-23 23:54:00,
2013-09-23 19:55:00,44.9,41.6,28.18,North,357,2.0,2.0,88,0.00,,,0.00,0,Wunderground v.1.15,2013-09-23 23:55:00,
2013-09-23 19:57:00,44.8,41.8,28.19,North,357,0.0,2.0,89,0.00,,,0.00,0,Wunderground v.1.15,2013-09-23 23:57:00,
2013-09-23 19:58:00,44.8,41.8,28.19,North,357,0.0,2.0,89,0.00,,,0.00,0,Wunderground v.1.15,2013-09-23 23:58:00,
2013-09-23 20:00:00,44.8,41.8,28.19,North,357,2.0,2.0,89,0.00,,,0.00,0,Wunderground v.1.15,2013-09-24 00:00:00,
2013-09-23 20:02:00,44.6,41.6,28.19,North,357,0.0,2.0,89,0.00,,,0.00,0,Wunderground v.1.15,2013-09-24 00:02:00,
2013-09-23 20:03:00,44.6,41.6,28.19,North,357,0.0,2.0,89,0.00,,,0.00,0,Wunderground v.1.15,2013-09-24 00:03:00,
2013-09-23 20:04:00,44.6,41.6,28.19,North,357,0.0,2.0,89,0.00,,,0.00,0,Wunderground v.1.15,2013-09-24 00:04:00,
2013-09-23 20:05:00,44.6,41.6,28.19,North,357,2.0,2.0,89,0.00,,,0.00,0,Wunderground v.1.15,2013-09-24 00:05:00,
2013-09-23 20:06:00,44.5,41.5,28.19,North,357,2.0,3.0,89,0.00,,,0.00,0,Wunderground v.1.15,2013-09-24 00:06:00,
2013-09-23 20:08:00,44.5,41.5,28.19,North,357,2.0,3.0,89,0.00,,,0.00,0,Wunderground v.1.15,2013-09-24 00:08:00,
2013-09-23 20:09:00,44.5,41.5,28.19,North,357,3.0,3.0,89,0.00,,,0.00,0,Wunderground v.1.15,2013-09-24 00:09:00,
2013-09-23 20:10:00,44.3,41.3,28.19,North,357,2.0,2.0,89,0.00,,,0.00,0,Wunderground v.1.15,2013-09-24 00:10:00,
2013-09-23 20:11:00,44.3,41.3,28.19,North,357,2.0,3.0,89,0.00,,,0.00,0,Wunderground v.1.15,2013-09-24 00:11:00,
2013-09-23 20:13:00,44.2,41.2,28.19,North,357,3.0,3.0,89,0.00,,,0.00,0,Wunderground v.1.15,2013-09-24 00:13:00,
2013-09-23 20:14:00,44.2,41.2,28.19,North,357,2.0,3.0,89,0.00,,,0.00,0,Wunderground v.1.15,2013-09-24 00:14:00,
2013-09-23 20:15:00,44.2,41.2,28.19,North,357,0.0,3.0,89,0.00,,,0.00,0,Wunderground v.1.15,2013-09-24 00:15:00,
2013-09-23 20:16:00,44.2,41.2,28.19,North,357,2.0,3.0,89,0.00,,,0.00,0,Wunderground v.1.15,2013-09-24 00:16:00,
2013-09-23 20:18:00,44.1,40.8,28.19,North,357,0.0,4.0,88,0.00,,,0.00,0,Wunderground v.1.15,2013-09-24 00:18:00,
2013-09-23 20:19:00,44.1,40.8,28.19,North,357,0.0,4.0,88,0.00,,,0.00,0,Wunderground v.1.15,2013-09-24 00:19:00,
2013-09-23 20:20:00,44.1,40.8,28.19,North,357,0.0,2.0,88,0.00,,,0.00,0,Wunderground v.1.15,2013-09-24 00:20:00,
2013-09-23 20:21:00,44.1,40.8,28.19,North,357,2.0,2.0,88,0.00,,,0.00,0,Wunderground v.1.15,2013-09-24 00:21:00,
2013-09-23 20:23:00,44.1,41.1,28.19,North,357,2.0,3.0,89,0.00,,,0.00,0,Wunderground v.1.15,2013-09-24 00:23:00,
2013-09-23 20:24:00,44.1,41.1,28.19,North,357,2.0,3.0,89,0.00,,,0.00,0,Wunderground v.1.15,2013-09-24 00:24:00,
2013-09-23 20:25:00,43.9,40.9,28.19,North,357,3.0,4.0,89,0.00,,,0.00,0,Wunderground v.1.15,2013-09-24 00:25:00,
2013-09-23 20:26:00,43.9,40.9,28.18,North,357,2.0,4.0,89,0.00,,,0.00,0,Wunderground v.1.15,2013-09-24 00:26:00,
2013-09-23 20:28:00,43.9,41.2,28.18,North,357,3.0,4.0,90,0.00,,,0.00,0,Wunderground v.1.15,2013-09-24 00:28:00,
2013-09-23 20:29:00,43.9,41.2,28.18,North,357,3.0,4.0,90,0.00,,,0.00,0,Wunderground v.1.15,2013-09-24 00:29:00,
2013-09-23 20:30:00,43.9,41.2,28.18,North,357,2.0,3.0,90,0.00,,,0.00,0,Wunderground v.1.15,2013-09-24 00:30:00,
2013-09-23 20:33:00,43.8,41.1,28.18,North,357,3.0,3.0,90,0.00,,,0.00,0,Wunderground v.1.15,2013-09-24 00:33:00,
2013-09-23 20:34:00,43.8,41.1,28.18,North,357,2.0,3.0,90,0.00,,,0.00,0,Wunderground v.1.15,2013-09-24 00:34:00,
2013-09-23 20:35:00,43.8,41.1,28.18,North,357,2.0,3.0,90,0.00,,,0.00,0,Wunderground v.1.15,2013-09-24 00:35:00,
2013-09-23 20:38:00,43.6,40.9,28.18,North,357,1.0,3.0,90,0.00,,,0.00,0,Wunderground v.1.15,2013-09-24 00:38:00,
2013-09-23 20:39:00,43.6,40.9,28.18,North,357,1.0,3.0,90,0.00,,,0.00,0,Wunderground v.1.15,2013-09-24 00:39:00,
2013-09-23 20:40:00,43.6,40.9,28.18,North,357,2.0,2.0,90,0.00,,,0.00,0,Wunderground v.1.15,2013-09-24 00:40:00,
2013-09-23 20:43:00,43.5,40.8,28.18,North,357,0.0,2.0,90,0.00,,,0.00,0,Wunderground v.1.15,2013-09-24 00:43:00,
2013-09-23 20:44:00,43.5,40.8,28.18,North,357,0.0,2.0,90,0.00,,,0.00,0,Wunderground v.1.15,2013-09-24 00:44:00,
2013-09-23 20:46:00,43.5,40.8,28.18,North,357,0.0,2.0,90,0.00,,,0.00,0,Wunderground v.1.15,2013-09-24 00:46:00,
2013-09-23 20:48:00,43.3,40.6,28.18,North,357,0.0,2.0,90,0.00,,,0.00,0,Wunderground v.1.15,2013-09-24 00:48:00,
2013-09-23 20:49:00,43.3,40.6,28.18,North,357,0.0,0.0,90,0.00,,,0.00,0,Wunderground v.1.15,2013-09-24 00:49:00,
2013-09-23 20:50:00,43.3,40.6,28.18,North,357,0.0,0.0,90,0.00,,,0.00,0,Wunderground v.1.15,2013-09-24 00:50:00,
2013-09-23 20:51:00,43.2,40.5,28.18,North,357,0.0,0.0,90,0.00,,,0.00,0,Wunderground v.1.15,2013-09-24 00:51:00,
2013-09-23 20:53:00,43.2,40.8,28.18,North,357,1.0,2.0,91,0.00,,,0.00,0,Wunderground v.1.15,2013-09-24 00:53:00,
2013-09-23 20:55:00,43.2,40.8,28.18,North,357,2.0,2.0,91,0.00,,,0.00,0,Wunderground v.1.15,2013-09-24 00:55:00,
2013-09-23 20:57:00,43.1,40.7,28.18,North,357,0.0,2.0,91,0.00,,,0.00,0,Wunderground v.1.15,2013-09-24 00:57:00,
2013-09-23 20:59:00,43.1,40.9,28.18,North,357,2.0,3.0,92,0.00,,,0.00,0,Wunderground v.1.15,2013-09-24 00:59:00,
2013-09-23 21:00:00,43.1,40.9,28.18,North,357,0.0,1.0,92,0.00,,,0.00,0,Wunderground v.1.15,2013-09-24 01:00:00,
2013-09-23 21:03:00,43.1,40.9,28.18,North,357,0.0,1.0,92,0.00,,,0.00,0,Wunderground v.1.15,2013-09-24 01:03:00,
2013-09-23 21:04:00,42.9,40.7,28.18,North,357,0.0,1.0,92,0.00,,,0.00,0,Wunderground v.1.15,2013-09-24 01:04:00,
2013-09-23 21:05:00,42.9,40.7,28.18,North,357,0.0,1.0,92,0.00,,,0.00,0,Wunderground v.1.15,2013-09-24 01:05:00,
2013-09-23 21:06:00,42.9,40.7,28.18,North,357,1.0,1.0,92,0.00,,,0.00,0,Wunderground v.1.15,2013-09-24 01:06:00,
2013-09-23 21:08:00,42.9,40.7,28.18,North,357,1.0,3.0,92,0.00,,,0.00,0,Wunderground v.1.15,2013-09-24 01:08:00,
2013-09-23 21:09:00,42.9,40.7,28.18,North,357,0.0,4.0,92,0.00,,,0.00,0,Wunderground v.1.15,2013-09-24 01:09:00,
2013-09-23 21:10:00,42.9,40.7,28.18,North,357,0.0,1.0,92,0.00,,,0.00,0,Wunderground v.1.15,2013-09-24 01:10:00,
2013-09-23 21:11:00,42.9,40.7,28.17,North,357,0.0,1.0,92,0.00,,,0.00,0,Wunderground v.1.15,2013-09-24 01:11:00,
2013-09-23 21:13:00,42.8,40.6,28.17,North,357,2.0,4.0,92,0.00,,,0.00,0,Wunderground v.1.15,2013-09-24 01:13:00,
2013-09-23 21:14:00,42.8,40.6,28.17,North,357,1.0,4.0,92,0.00,,,0.00,0,Wunderground v.1.15,2013-09-24 01:14:00,
2013-09-23 21:15:00,42.8,40.6,28.17,North,357,0.0,4.0,92,0.00,,,0.00,0,Wunderground v.1.15,2013-09-24 01:15:00,
2013-09-23 21:16:00,42.8,40.6,28.17,North,357,0.0,4.0,92,0.00,,,0.00,0,Wunderground v.1.15,2013-09-24 01:16:00,
2013-09-23 21:17:00,42.8,40.6,28.17,North,357,0.0,4.0,92,0.00,,,0.00,0,Wunderground v.1.15,2013-09-24 01:17:00,
2013-09-23 21:18:00,42.8,40.6,28.17,North,357,0.0,4.0,92,0.00,,,0.00,0,Wunderground v.1.15,2013-09-24 01:18:00,
2013-09-23 21:20:00,42.8,40.6,28.17,North,357,2.0,2.0,92,0.00,,,0.00,0,Wunderground v.1.15,2013-09-24 01:20:00,
2013-09-23 21:21:00,42.8,40.6,28.17,North,357,2.0,3.0,92,0.00,,,0.00,0,Wunderground v.1.15,2013-09-24 01:21:00,
2013-09-23 21:22:00,42.8,40.6,28.17,North,357,1.0,3.0,92,0.00,,,0.00,0,Wunderground v.1.15,2013-09-24 01:22:00,
2013-09-23 21:23:00,42.8,40.6,28.17,North,357,0.0,3.0,92,0.00,,,0.00,0,Wunderground v.1.15,2013-09-24 01:23:00,
2013-09-23 21:25:00,42.8,40.6,28.17,North,357,0.0,3.0,92,0.00,,,0.00,0,Wunderground v.1.15,2013-09-24 01:25:00,
2013-09-23 21:26:00,42.8,40.6,28.17,North,357,0.0,3.0,92,0.00,,,0.00,0,Wunderground v.1.15,2013-09-24 01:26:00,
2013-09-23 21:28:00,42.8,40.6,28.17,North,357,1.0,3.0,92,0.00,,,0.00,0,Wunderground v.1.15,2013-09-24 01:28:00,
2013-09-23 21:29:00,42.8,40.4,28.17,North,357,0.0,3.0,91,0.00,,,0.00,0,Wunderground v.1.15,2013-09-24 01:29:00,
2013-09-23 21:30:00,42.8,40.4,28.17,North,357,0.0,1.0,91,0.00,,,0.00,0,Wunderground v.1.15,2013-09-24 01:30:00,
2013-09-23 21:32:00,42.8,40.4,28.17,North,357,0.0,1.0,91,0.00,,,0.00,0,Wunderground v.1.15,2013-09-24 01:32:00,
2013-09-23 21:33:00,42.8,40.4,28.17,North,357,0.0,1.0,91,0.00,,,0.00,0,Wunderground v.1.15,2013-09-24 01:33:00,
2013-09-23 21:34:00,42.8,40.4,28.17,North,357,0.0,1.0,91,0.00,,,0.00,0,Wunderground v.1.15,2013-09-24 01:34:00,
2013-09-23 21:36:00,42.6,40.2,28.17,North,357,2.0,2.0,91,0.00,,,0.00,0,Wunderground v.1.15,2013-09-24 01:36:00,
2013-09-23 21:37:00,42.6,40.2,28.17,North,357,3.0,3.0,91,0.00,,,0.00,0,Wunderground v.1.15,2013-09-24 01:37:00,
2013-09-23 21:38:00,42.6,40.2,28.17,North,357,3.0,3.0,91,0.00,,,0.00,0,Wunderground v.1.15,2013-09-24 01:38:00,
2013-09-23 21:39:00,42.6,40.2,28.17,North,357,3.0,3.0,91,0.00,,,0.00,0,Wunderground v.1.15,2013-09-24 01:39:00,
2013-09-23 21:41:00,42.5,40.3,28.17,North,357,3.0,3.0,92,0.00,,,0.00,0,Wunderground v.1.15,2013-09-24 01:41:00,
2013-09-23 21:42:00,42.5,40.3,28.17,North,357,3.0,3.0,92,0.00,,,0.00,0,Wunderground v.1.15,2013-09-24 01:42:00,
2013-09-23 21:43:00,42.5,40.3,28.17,North,357,3.0,3.0,92,0.00,,,0.00,0,Wunderground v.1.15,2013-09-24 01:43:00,
2013-09-23 21:45:00,42.5,40.3,28.17,North,357,3.0,3.0,92,0.00,,,0.00,0,Wunderground v.1.15,2013-09-24 01:45:00,
2013-09-23 21:47:00,42.5,40.3,28.17,North,357,3.0,4.0,92,0.00,,,0.00,0,Wunderground v.1.15,2013-09-24 01:47:00,
2013-09-23 21:48:00,42.5,40.3,28.17,North,357,2.0,4.0,92,0.00,,,0.00,0,Wunderground v.1.15,2013-09-24 01:48:00,
2013-09-23 21:50:00,42.3,40.1,28.17,North,357,1.0,3.0,92,0.00,,,0.00,0,Wunderground v.1.15,2013-09-24 01:50:00,
2013-09-23 21:52:00,42.3,40.1,28.17,North,357,3.0,3.0,92,0.00,,,0.00,0,Wunderground v.1.15,2013-09-24 01:52:00,
2013-09-23 21:53:00,42.3,40.1,28.17,North,357,2.0,3.0,92,0.00,,,0.00,0,Wunderground v.1.15,2013-09-24 01:53:00,
2013-09-23 21:55:00,42.3,40.1,28.17,North,357,3.0,4.0,92,0.00,,,0.00,0,Wunderground v.1.15,2013-09-24 01:55:00,
2013-09-23 21:57:00,42.3,40.1,28.17,North,357,3.0,4.0,92,0.00,,,0.00,0,Wunderground v.1.15,2013-09-24 01:57:00,
2013-09-23 21:58:00,42.3,40.1,28.17,North,357,2.0,4.0,92,0.00,,,0.00,0,Wunderground v.1.15,2013-09-24 01:58:00,
2013-09-23 21:59:00,42.3,40.1,28.17,North,357,3.0,4.0,92,0.00,,,0.00,0,Wunderground v.1.15,2013-09-24 01:59:00,
2013-09-23 22:00:00,42.3,40.1,28.17,North,357,2.0,3.0,92,0.00,,,0.00,0,Wunderground v.1.15,2013-09-24 02:00:00,
2013-09-23 22:03:00,42.3,40.1,28.17,North,357,0.0,3.0,92,0.00,,,0.00,0,Wunderground v.1.15,2013-09-24 02:03:00,
2013-09-23 22:04:00,42.3,40.1,28.17,North,357,0.0,3.0,92,0.00,,,0.00,0,Wunderground v.1.15,2013-09-24 02:04:00,
2013-09-23 22:05:00,42.3,40.1,28.17,North,357,3.0,3.0,92,0.00,,,0.00,0,Wunderground v.1.15,2013-09-24 02:05:00,
2013-09-23 22:08:00,42.3,40.1,28.17,North,357,0.0,3.0,92,0.00,,,0.00,0,Wunderground v.1.15,2013-09-24 02:08:00,
2013-09-23 22:09:00,42.3,40.1,28.17,North,357,0.0,3.0,92,0.00,,,0.00,0,Wunderground v.1.15,2013-09-24 02:09:00,
2013-09-23 22:10:00,42.3,40.1,28.17,North,357,0.0,1.0,92,0.00,,,0.00,0,Wunderground v.1.15,2013-09-24 02:10:00,
2013-09-23 22:11:00,42.3,39.9,28.17,North,357,0.0,1.0,91,0.00,,,0.00,0,Wunderground v.1.15,2013-09-24 02:11:00,
2013-09-23 22:13:00,42.3,39.9,28.17,North,357,2.0,3.0,91,0.00,,,0.00,0,Wunderground v.1.15,2013-09-24 02:13:00,
2013-09-23 22:14:00,42.3,39.9,28.17,North,357,2.0,3.0,91,0.00,,,0.00,0,Wunderground v.1.15,2013-09-24 02:14:00,
2013-09-23 22:15:00,42.3,39.9,28.17,North,357,2.0,3.0,91,0.00,,,0.00,0,Wunderground v.1.15,2013-09-24 02:15:00,
2013-09-23 22:16:00,42.3,39.9,28.17,North,357,1.0,3.0,91,0.00,,,0.00,0,Wunderground v.1.15,2013-09-24 02:16:00,
2013-09-23 22:18:00,42.3,39.9,28.17,North,357,2.0,3.0,91,0.00,,,0.00,0,Wunderground v.1.15,2013-09-24 02:18:00,
2013-09-23 22:19:00,42.3,39.9,28.17,North,357,1.0,1.0,91,0.00,,,0.00,0,Wunderground v.1.15,2013-09-24 02:19:00,
2013-09-23 22:20:00,42.3,39.9,28.17,North,357,0.0,1.0,91,0.00,,,0.00,0,Wunderground v.1.15,2013-09-24 02:20:00,
2013-09-23 22:21:00,42.3,39.9,28.17,North,357,0.0,1.0,91,0.00,,,0.00,0,Wunderground v.1.15,2013-09-24 02:21:00,
2013-09-23 22:23:00,42.3,39.9,28.17,North,357,3.0,3.0,91,0.00,,,0.00,0,Wunderground v.1.15,2013-09-24 02:23:00,
2013-09-23 22:25:00,42.3,39.9,28.17,North,357,3.0,3.0,91,0.00,,,0.00,0,Wunderground v.1.15,2013-09-24 02:25:00,
2013-09-23 22:26:00,42.3,39.9,28.17,North,357,2.0,3.0,91,0.00,,,0.00,0,Wunderground v.1.15,2013-09-24 02:26:00,
2013-09-23 22:28:00,42.3,40.1,28.18,North,357,1.0,3.0,92,0.00,,,0.00,0,Wunderground v.1.15,2013-09-24 02:28:00,
2013-09-23 22:30:00,42.3,40.1,28.18,North,357,2.0,3.0,92,0.00,,,0.00,0,Wunderground v.1.15,2013-09-24 02:30:00,
2013-09-23 22:31:00,42.5,40.3,28.18,North,357,3.0,3.0,92,0.00,,,0.00,0,Wunderground v.1.15,2013-09-24 02:31:00,
2013-09-23 22:32:00,42.5,40.3,28.18,North,357,2.0,3.0,92,0.00,,,0.00,0,Wunderground v.1.15,2013-09-24 02:32:00,
2013-09-23 22:33:00,42.5,40.3,28.18,North,357,3.0,3.0,92,0.00,,,0.00,0,Wunderground v.1.15,2013-09-24 02:33:00,
2013-09-23 22:34:00,42.5,40.3,28.18,North,357,2.0,3.0,92,0.00,,,0.00,0,Wunderground v.1.15,2013-09-24 02:34:00,
2013-09-23 22:35:00,42.5,40.3,28.18,North,357,3.0,3.0,92,0.00,,,0.00,0,Wunderground v.1.15,2013-09-24 02:35:00,
2013-09-23 22:37:00,42.3,40.1,28.18,North,357,2.0,3.0,92,0.00,,,0.00,0,Wunderground v.1.15,2013-09-24 02:37:00,
2013-09-23 22:38:00,42.3,40.1,28.18,North,357,3.0,3.0,92,0.00,,,0.00,0,Wunderground v.1.15,2013-09-24 02:38:00,
2013-09-23 22:39:00,42.3,40.1,28.18,North,357,2.0,3.0,92,0.00,,,0.00,0,Wunderground v.1.15,2013-09-24 02:39:00,
2013-09-23 22:40:00,42.3,40.1,28.18,North,357,3.0,4.0,92,0.00,,,0.00,0,Wunderground v.1.15,2013-09-24 02:40:00,
2013-09-23 22:43:00,42.3,40.1,28.18,North,357,3.0,4.0,92,0.00,,,0.00,0,Wunderground v.1.15,2013-09-24 02:43:00,
2013-09-23 22:44:00,42.3,40.1,28.18,North,357,3.0,4.0,92,0.00,,,0.00,0,Wunderground v.1.15,2013-09-24 02:44:00,
2013-09-23 22:46:00,42.2,40.0,28.18,North,357,3.0,4.0,92,0.00,,,0.00,0,Wunderground v.1.15,2013-09-24 02:46:00,
2013-09-23 22:48:00,42.2,40.0,28.18,North,357,3.0,4.0,92,0.00,,,0.00,0,Wunderground v.1.15,2013-09-24 02:48:00,
2013-09-23 22:49:00,42.2,40.0,28.18,North,357,2.0,4.0,92,0.00,,,0.00,0,Wunderground v.1.15,2013-09-24 02:49:00,
2013-09-23 22:51:00,42.1,40.2,28.18,North,357,2.0,4.0,93,0.00,,,0.00,0,Wunderground v.1.15,2013-09-24 02:51:00,
2013-09-23 22:54:00,42.1,40.2,28.18,North,357,3.0,4.0,93,0.00,,,0.00,0,Wunderground v.1.15,2013-09-24 02:54:00,
2013-09-23 22:56:00,42.1,40.2,28.18,North,357,4.0,4.0,93,0.00,,,0.00,0,Wunderground v.1.15,2013-09-24 02:56:00,
2013-09-23 22:59:00,42.1,40.2,28.18,North,357,2.0,4.0,93,0.00,,,0.00,0,Wunderground v.1.15,2013-09-24 02:59:00,
2013-09-23 23:01:00,42.2,40.3,28.18,North,357,1.0,3.0,93,0.00,,,0.00,0,Wunderground v.1.15,2013-09-24 03:01:00,
2013-09-23 23:04:00,42.2,40.3,28.18,North,357,1.0,4.0,93,0.00,,,0.00,0,Wunderground v.1.15,2013-09-24 03:04:00,
2013-09-23 23:05:00,42.2,40.3,28.18,North,357,1.0,4.0,93,0.00,,,0.00,0,Wunderground v.1.15,2013-09-24 03:05:00,
2013-09-23 23:07:00,42.2,40.3,28.18,North,357,2.0,4.0,93,0.00,,,0.00,0,Wunderground v.1.15,2013-09-24 03:07:00,
2013-09-23 23:09:00,42.2,40.3,28.18,North,357,2.0,4.0,93,0.00,,,0.00,0,Wunderground v.1.15,2013-09-24 03:09:00,
2013-09-23 23:10:00,42.2,40.3,28.18,North,357,2.0,3.0,93,0.00,,,0.00,0,Wunderground v.1.15,2013-09-24 03:10:00,
2013-09-23 23:12:00,42.2,40.0,28.18,North,357,2.0,3.0,92,0.00,,,0.00,0,Wunderground v.1.15,2013-09-24 03:12:00,
2013-09-23 23:14:00,42.2,40.0,28.18,North,357,3.0,3.0,92,0.00,,,0.00,0,Wunderground v.1.15,2013-09-24 03:14:00,
2013-09-23 23:15:00,42.2,40.0,28.18,North,357,2.0,3.0,92,0.00,,,0.00,0,Wunderground v.1.15,2013-09-24 03:15:00,
2013-09-23 23:17:00,42.2,40.0,28.18,North,357,2.0,3.0,92,0.00,,,0.00,0,Wunderground v.1.15,2013-09-24 03:17:00,
2013-09-23 23:19:00,42.2,40.0,28.18,North,357,2.0,2.0,92,0.00,,,0.00,0,Wunderground v.1.15,2013-09-24 03:19:00,
2013-09-23 23:20:00,42.2,40.0,28.18,North,357,3.0,3.0,92,0.00,,,0.00,0,Wunderground v.1.15,2013-09-24 03:20:00,
2013-09-23 23:22:00,42.1,39.9,28.18,North,357,0.0,3.0,92,0.00,,,0.00,0,Wunderground v.1.15,2013-09-24 03:22:00,
2013-09-23 23:23:00,42.1,39.9,28.18,North,357,0.0,3.0,92,0.00,,,0.00,0,Wunderground v.1.15,2013-09-24 03:23:00,
2013-09-23 23:24:00,42.1,39.9,28.18,North,357,2.0,3.0,92,0.00,,,0.00,0,Wunderground v.1.15,2013-09-24 03:24:00,
2013-09-23 23:25:00,42.1,39.9,28.18,North,357,2.0,3.0,92,0.00,,,0.00,0,Wunderground v.1.15,2013-09-24 03:25:00,
2013-09-23 23:27:00,42.1,39.9,28.18,North,357,2.0,3.0,92,0.00,,,0.00,0,Wunderground v.1.15,2013-09-24 03:27:00,
2013-09-23 23:29:00,42.1,39.9,28.18,North,357,2.0,3.0,92,0.00,,,0.00,0,Wunderground v.1.15,2013-09-24 03:29:00,
2013-09-23 23:30:00,42.1,39.9,28.18,North,357,3.0,3.0,92,0.00,,,0.00,0,Wunderground v.1.15,2013-09-24 03:30:00,
2013-09-23 23:31:00,42.1,39.9,28.18,North,357,2.0,3.0,92,0.00,,,0.00,0,Wunderground v.1.15,2013-09-24 03:31:00,
2013-09-23 23:32:00,42.1,39.7,28.18,North,357,3.0,3.0,91,0.00,,,0.00,0,Wunderground v.1.15,2013-09-24 03:32:00,
2013-09-23 23:34:00,42.1,39.7,28.18,North,357,1.0,3.0,91,0.00,,,0.00,0,Wunderground v.1.15,2013-09-24 03:34:00,
2013-09-23 23:35:00,42.1,39.7,28.18,North,357,2.0,3.0,91,0.00,,,0.00,0,Wunderground v.1.15,2013-09-24 03:35:00,
2013-09-23 23:36:00,42.1,39.7,28.18,North,357,2.0,3.0,91,0.00,,,0.00,0,Wunderground v.1.15,2013-09-24 03:36:00,
2013-09-23 23:38:00,42.1,39.7,28.18,North,357,2.0,3.0,91,0.00,,,0.00,0,Wunderground v.1.15,2013-09-24 03:38:00,
2013-09-23 23:40:00,42.1,39.7,28.18,North,357,3.0,3.0,91,0.00,,,0.00,0,Wunderground v.1.15,2013-09-24 03:40:00,
2013-09-23 23:41:00,42.2,39.5,28.18,North,357,3.0,3.0,90,0.00,,,0.00,0,Wunderground v.1.15,2013-09-24 03:41:00,
2013-09-23 23:43:00,42.2,39.5,28.18,North,357,2.0,3.0,90,0.00,,,0.00,0,Wunderground v.1.15,2013-09-24 03:43:00,
2013-09-23 23:45:00,42.2,39.5,28.18,North,357,2.0,3.0,90,0.00,,,0.00,0,Wunderground v.1.15,2013-09-24 03:45:00,
2013-09-23 23:46:00,42.2,39.5,28.18,North,357,0.0,3.0,90,0.00,,,0.00,0,Wunderground v.1.15,2013-09-24 03:46:00,
2013-09-23 23:48:00,42.3,39.3,28.18,North,357,1.0,3.0,89,0.00,,,0.00,0,Wunderground v.1.15,2013-09-24 03:48:00,
2013-09-23 23:50:00,42.3,39.3,28.18,North,357,3.0,3.0,89,0.00,,,0.00,0,Wunderground v.1.15,2013-09-24 03:50:00,
2013-09-23 23:51:00,42.3,39.3,28.18,North,357,3.0,3.0,89,0.00,,,0.00,0,Wunderground v.1.15,2013-09-24 03:51:00,
2013-09-23 23:53:00,42.5,39.5,28.18,North,357,3.0,3.0,89,0.00,,,0.00,0,Wunderground v.1.15,2013-09-24 03:53:00,
2013-09-23 23:55:00,42.5,39.5,28.18,North,357,2.0,3.0,89,0.00,,,0.00,0,Wunderground v.1.15,2013-09-24 03:55:00,
2013-09-23 23:56:00,42.5,39.5,28.18,North,357,2.0,3.0,89,0.00,,,0.00,0,Wunderground v.1.15,2013-09-24 03:56:00,
2013-09-23 23:58:00,42.5,39.5,28.17,North,357,3.0,3.0,89,0.00,,,0.00,0,Wunderground v.1.15,2013-09-24 03:58:00,